Wetterdaten: aktuell Mittwoch, 18.09.2019 19:58
Datum Zeit Temp. I. Temp. 2m Temp. 5cm Temp. Gr 2m LF I. Luftf.2m LG Graben Luftdruck Regen Wind Richtung Richtung Taupunkt Windchill Windben
18.09.2019 19:58 23,8 C 9,4 C 8,1 C 4,8 C 47 % 64 % 77 % 1025,4 hPa 0,0 l/m 2,6 km/h (1 Bft) W 270 2,9 C 9,4 C 0,0 km/h (0 Bft)
18.09.2019 19:56 23,8 C 9,4 C 8,2 C 4,9 C 47 % 63 % 77 % 1025,4 hPa 0,0 l/m 2,4 km/h (1 Bft) S-SO 157 2,7 C 9,4 C 4,8 km/h (1 Bft)
18.09.2019 19:54 23,8 C 9,4 C 8,3 C 4,9 C 47 % 63 % 77 % 1025,4 hPa 0,0 l/m 1,8 km/h (1 Bft) N-NO 22 2,7 C 9,4 C 5,1 km/h (1 Bft)
18.09.2019 19:52 23,8 C 9,5 C 8,4 C 5,0 C 47 % 63 % 76 % 1025,4 hPa 0,0 l/m 1,0 km/h (0 Bft) S-SO 157 2,8 C 9,5 C 8,0 km/h (2 Bft)
18.09.2019 19:50 23,8 C 9,5 C 8,4 C 5,1 C 47 % 63 % 76 % 1025,4 hPa 0,0 l/m 0,5 km/h (0 Bft) SO 135 2,8 C 9,5 C 5,6 km/h (1 Bft)
18.09.2019 19:48 23,8 C 9,8 C 8,3 C 5,1 C 46 % 63 % 76 % 1025,4 hPa 0,0 l/m 0,2 km/h (0 Bft) SO 135 3,1 C 9,8 C 3,6 km/h (1 Bft)
18.09.2019 19:46 23,8 C 9,9 C 8,4 C 5,4 C 47 % 63 % 76 % 1025,4 hPa 0,0 l/m 0,5 km/h (0 Bft) S-SW 202 3,2 C 9,9 C 0,0 km/h (0 Bft)
18.09.2019 19:44 23,8 C 10,1 C 8,4 C 5,4 C 47 % 62 % 75 % 1025,4 hPa 0,0 l/m 0,6 km/h (0 Bft) S 180 3,2 C 10,1 C 0,0 km/h (0 Bft)
18.09.2019 19:42 23,8 C 10,2 C 8,5 C 5,6 C 46 % 62 % 75 % 1025,4 hPa 0,0 l/m 0,6 km/h (0 Bft) O-SO 112 3,3 C 10,2 C 0,0 km/h (0 Bft)
18.09.2019 19:40 23,8 C 10,3 C 8,8 C 5,7 C 47 % 62 % 75 % 1025,4 hPa 0,0 l/m 0,8 km/h (0 Bft) N 360 3,3 C 10,3 C 0,0 km/h (0 Bft)
18.09.2019 19:38 23,8 C 10,3 C 8,8 C 5,8 C 47 % 62 % 75 % 1025,4 hPa 0,0 l/m 1,0 km/h (0 Bft) O-SO 112 3,3 C 10,3 C 3,6 km/h (1 Bft)
18.09.2019 19:36 23,8 C 10,4 C 8,9 C 5,9 C 47 % 61 % 75 % 1025,4 hPa 0,0 l/m 0,6 km/h (0 Bft) NO 45 3,2 C 10,4 C 4,6 km/h (1 Bft)
18.09.2019 19:34 23,8 C 10,5 C 9,0 C 6,0 C 46 % 61 % 74 % 1025,4 hPa 0,0 l/m 0,5 km/h (0 Bft) W-NW 292 3,3 C 10,5 C 0,0 km/h (0 Bft)
18.09.2019 19:32 23,8 C 10,6 C 9,1 C 6,1 C 46 % 61 % 73 % 1025,4 hPa 0,0 l/m 0,6 km/h (0 Bft) O-SO 112 3,4 C 10,6 C 0,0 km/h (0 Bft)
18.09.2019 19:30 23,8 C 10,8 C 9,3 C 6,1 C 46 % 61 % 73 % 1025,4 hPa 0,0 l/m 1,0 km/h (0 Bft) O-SO 112 3,6 C 10,8 C 0,0 km/h (0 Bft)
18.09.2019 19:28 23,8 C 10,8 C 9,6 C 6,3 C 46 % 61 % 73 % 1025,4 hPa 0,0 l/m 1,3 km/h (1 Bft) SO 135 3,6 C 10,8 C 0,0 km/h (0 Bft)
18.09.2019 19:26 23,8 C 10,9 C 9,8 C 6,4 C 46 % 61 % 73 % 1025,4 hPa 0,0 l/m 1,6 km/h (1 Bft) O-SO 112 3,7 C 10,9 C 2,7 km/h (1 Bft)
18.09.2019 19:24 23,8 C 10,8 C 10,1 C 6,6 C 46 % 61 % 73 % 1025,4 hPa 0,0 l/m 1,8 km/h (1 Bft) N 360 3,6 C 10,8 C 2,7 km/h (1 Bft)
18.09.2019 19:22 23,8 C 10,8 C 9,9 C 6,6 C 46 % 61 % 73 % 1025,4 hPa 0,0 l/m 2,1 km/h (1 Bft) S-SO 157 3,6 C 10,8 C 6,5 km/h (2 Bft)
18.09.2019 19:20 23,8 C 10,8 C 9,8 C 6,8 C 46 % 61 % 72 % 1025,4 hPa 0,0 l/m 2,1 km/h (1 Bft) SO 135 3,6 C 10,8 C 5,1 km/h (1 Bft)
18.09.2019 19:18 23,8 C 10,8 C 9,7 C 7,0 C 46 % 61 % 71 % 1025,4 hPa 0,0 l/m 1,8 km/h (1 Bft) S-SO 157 3,6 C 10,8 C 5,1 km/h (1 Bft)
18.09.2019 19:16 23,8 C 10,9 C 9,9 C 7,1 C 46 % 60 % 71 % 1025,4 hPa 0,0 l/m 1,4 km/h (1 Bft) O-NO 67 3,4 C 10,9 C 3,4 km/h (1 Bft)
18.09.2019 19:14 23,8 C 10,9 C 9,8 C 7,4 C 46 % 60 % 71 % 1025,4 hPa 0,0 l/m 1,6 km/h (1 Bft) SW 225 3,4 C 10,9 C 3,4 km/h (1 Bft)
18.09.2019 19:12 23,8 C 10,9 C 9,8 C 7,5 C 46 % 60 % 71 % 1025,4 hPa 0,0 l/m 1,6 km/h (1 Bft) S-SW 202 3,4 C 10,9 C 3,9 km/h (1 Bft)
18.09.2019 19:10 23,8 C 11,0 C 9,7 C 7,6 C 46 % 60 % 71 % 1025,1 hPa 0,0 l/m 1,3 km/h (1 Bft) W-SW 247 3,5 C 11,0 C 5,1 km/h (1 Bft)
18.09.2019 19:08 23,8 C 11,1 C 9,7 C 7,7 C 46 % 59 % 71 % 1025,1 hPa 0,0 l/m 1,1 km/h (1 Bft) S-SO 157 3,4 C 11,1 C 0,0 km/h (0 Bft)
18.09.2019 19:06 23,8 C 11,4 C 9,6 C 7,9 C 46 % 59 % 71 % 1025,1 hPa 0,0 l/m 1,1 km/h (1 Bft) S-SO 157 3,7 C 11,4 C 2,9 km/h (1 Bft)
18.09.2019 19:04 23,8 C 11,5 C 9,8 C 7,8 C 46 % 59 % 70 % 1025,1 hPa 0,0 l/m 1,0 km/h (0 Bft) W-NW 292 3,8 C 11,5 C 4,8 km/h (1 Bft)
18.09.2019 19:02 23,8 C 11,5 C 10,0 C 7,9 C 46 % 59 % 70 % 1025,1 hPa 0,0 l/m 0,6 km/h (0 Bft) NO 45 3,8 C 11,5 C 2,9 km/h (1 Bft)
18.09.2019 19:00 23,8 C 11,6 C 10,2 C 7,9 C 46 % 58 % 70 % 1025,1 hPa 0,0 l/m 0,6 km/h (0 Bft) N-NW 337 3,6 C 11,6 C 0,0 km/h (0 Bft)
18.09.2019 18:58 23,8 C 11,8 C 10,6 C 8,0 C 46 % 57 % 70 % 1025,1 hPa 0,0 l/m 0,6 km/h (0 Bft) W-SW 247 3,6 C 11,8 C 2,4 km/h (1 Bft)
18.09.2019 18:56 23,8 C 12,0 C 10,9 C 8,1 C 46 % 57 % 69 % 1025,1 hPa 0,0 l/m 0,5 km/h (0 Bft) N-NO 22 3,8 C 12,0 C 0,0 km/h (0 Bft)
18.09.2019 18:54 23,8 C 12,1 C 11,2 C 8,1 C 46 % 57 % 69 % 1025,1 hPa 0,0 l/m 0,6 km/h (0 Bft) NO 45 3,8 C 12,1 C 0,0 km/h (0 Bft)
18.09.2019 18:52 23,8 C 12,2 C 11,0 C 8,5 C 46 % 57 % 69 % 1025,1 hPa 0,0 l/m 0,6 km/h (0 Bft) W 270 3,9 C 12,2 C 0,0 km/h (0 Bft)
18.09.2019 18:50 23,8 C 12,3 C 10,7 C 8,5 C 46 % 56 % 69 % 1025,1 hPa 0,0 l/m 0,6 km/h (0 Bft) SW 225 3,8 C 12,3 C 0,0 km/h (0 Bft)
18.09.2019 18:48 23,8 C 12,3 C 11,0 C 8,6 C 46 % 56 % 68 % 1025,1 hPa 0,0 l/m 0,6 km/h (0 Bft) S-SO 157 3,8 C 12,3 C 0,0 km/h (0 Bft)
18.09.2019 18:46 23,8 C 12,3 C 11,1 C 8,7 C 46 % 56 % 68 % 1025,1 hPa 0,0 l/m 1,0 km/h (0 Bft) O-SO 112 3,8 C 12,3 C 0,0 km/h (0 Bft)
18.09.2019 18:44 23,7 C 12,3 C 11,2 C 8,8 C 46 % 56 % 68 % 1025,1 hPa 0,0 l/m 0,8 km/h (0 Bft) O 90 3,8 C 12,3 C 2,9 km/h (1 Bft)
18.09.2019 18:42 23,7 C 12,5 C 11,2 C 8,8 C 46 % 56 % 68 % 1025,1 hPa 0,0 l/m 1,0 km/h (0 Bft) O 90 4,0 C 12,5 C 0,0 km/h (0 Bft)
18.09.2019 18:40 23,7 C 12,6 C 11,6 C 8,9 C 46 % 56 % 68 % 1025,1 hPa 0,0 l/m 1,0 km/h (0 Bft) N-NW 337 4,1 C 12,6 C 0,0 km/h (0 Bft)
18.09.2019 18:38 23,7 C 12,7 C 11,9 C 9,0 C 45 % 55 % 67 % 1025,1 hPa 0,0 l/m 1,0 km/h (0 Bft) N-NO 22 3,9 C 12,7 C 3,4 km/h (1 Bft)
18.09.2019 18:36 23,7 C 12,7 C 12,0 C 9,0 C 45 % 55 % 67 % 1025,1 hPa 0,0 l/m 1,4 km/h (1 Bft) SO 135 3,9 C 12,7 C 4,3 km/h (1 Bft)
18.09.2019 18:34 23,7 C 12,7 C 12,0 C 9,1 C 45 % 55 % 67 % 1025,1 hPa 0,0 l/m 1,6 km/h (1 Bft) N-NO 22 3,9 C 12,7 C 0,0 km/h (0 Bft)
18.09.2019 18:32 23,7 C 12,8 C 12,1 C 9,2 C 45 % 55 % 67 % 1025,1 hPa 0,0 l/m 1,8 km/h (1 Bft) W 270 4,0 C 12,8 C 3,4 km/h (1 Bft)
18.09.2019 18:30 23,7 C 12,9 C 12,3 C 9,3 C 45 % 55 % 67 % 1024,9 hPa 0,0 l/m 1,9 km/h (1 Bft) O 90 4,1 C 12,9 C 3,4 km/h (1 Bft)
18.09.2019 18:28 23,7 C 13,0 C 12,5 C 9,3 C 45 % 54 % 67 % 1024,9 hPa 0,0 l/m 1,9 km/h (1 Bft) O-NO 67 3,9 C 13,0 C 2,9 km/h (1 Bft)
18.09.2019 18:26 23,7 C 13,1 C 12,6 C 9,5 C 45 % 53 % 67 % 1024,9 hPa 0,0 l/m 2,1 km/h (1 Bft) N-NW 337 3,7 C 13,1 C 9,7 km/h (2 Bft)
18.09.2019 18:24 23,7 C 13,1 C 12,6 C 9,5 C 45 % 53 % 67 % 1024,9 hPa 0,0 l/m 1,8 km/h (1 Bft) N-NO 22 3,7 C 13,1 C 5,8 km/h (2 Bft)
18.09.2019 18:22 23,6 C 13,2 C 12,9 C 9,7 C 45 % 53 % 67 % 1024,9 hPa 0,0 l/m 1,6 km/h (1 Bft) O-NO 67 3,8 C 13,2 C 0,0 km/h (0 Bft)
18.09.2019 18:20 23,7 C 13,4 C 12,9 C 9,9 C 45 % 53 % 67 % 1024,9 hPa 0,0 l/m 1,8 km/h (1 Bft) N-NW 337 4,0 C 13,4 C 3,1 km/h (1 Bft)
18.09.2019 18:18 23,6 C 13,6 C 13,1 C 9,9 C 44 % 52 % 67 % 1024,9 hPa 0,0 l/m 2,1 km/h (1 Bft) N 360 3,9 C 13,6 C 3,6 km/h (1 Bft)
18.09.2019 18:16 23,6 C 13,7 C 13,3 C 10,1 C 44 % 52 % 67 % 1024,9 hPa 0,0 l/m 2,6 km/h (1 Bft) W-NW 292 4,0 C 13,7 C 4,3 km/h (1 Bft)
18.09.2019 18:14 23,6 C 13,8 C 13,6 C 10,1 C 44 % 51 % 67 % 1024,9 hPa 0,0 l/m 2,6 km/h (1 Bft) N-NO 22 3,8 C 13,8 C 6,8 km/h (2 Bft)
18.09.2019 18:12 23,6 C 13,9 C 14,6 C 10,3 C 43 % 51 % 67 % 1024,9 hPa 0,0 l/m 2,3 km/h (1 Bft) N-NO 22 3,9 C 13,9 C 0,0 km/h (0 Bft)
18.09.2019 18:10 23,6 C 14,1 C 15,0 C 10,4 C 43 % 50 % 67 % 1024,9 hPa 0,0 l/m 2,7 km/h (1 Bft) W-NW 292 3,8 C 14,1 C 3,1 km/h (1 Bft)
18.09.2019 18:08 23,6 C 14,1 C 15,4 C 10,6 C 42 % 50 % 66 % 1024,9 hPa 0,0 l/m 3,1 km/h (1 Bft) W 270 3,8 C 14,1 C 4,6 km/h (1 Bft)
18.09.2019 18:06 23,6 C 14,2 C 16,4 C 10,8 C 42 % 50 % 66 % 1024,9 hPa 0,0 l/m 3,1 km/h (1 Bft) W 270 3,9 C 14,2 C 12,3 km/h (3 Bft)
18.09.2019 18:04 23,6 C 14,3 C 16,9 C 10,9 C 42 % 50 % 66 % 1024,9 hPa 0,0 l/m 3,1 km/h (1 Bft) W 270 4,0 C 14,3 C 0,0 km/h (0 Bft)
18.09.2019 18:02 23,7 C 14,5 C 17,4 C 11,1 C 40 % 49 % 66 % 1024,9 hPa 0,0 l/m 3,4 km/h (1 Bft) SW 225 3,9 C 14,5 C 2,9 km/h (1 Bft)
18.09.2019 18:00 23,7 C 14,6 C 17,6 C 11,5 C 40 % 49 % 65 % 1024,9 hPa 0,0 l/m 3,9 km/h (1 Bft) W 270 4,0 C 14,6 C 8,0 km/h (2 Bft)
18.09.2019 17:58 23,7 C 14,6 C 17,8 C 11,8 C 42 % 50 % 64 % 1024,9 hPa 0,0 l/m 4,3 km/h (1 Bft) NW 315 4,3 C 14,6 C 7,5 km/h (2 Bft)
18.09.2019 17:56 23,7 C 14,6 C 17,9 C 12,0 C 43 % 49 % 63 % 1024,9 hPa 0,0 l/m 4,7 km/h (1 Bft) W-NW 292 4,0 C 14,6 C 6,8 km/h (2 Bft)
18.09.2019 17:54 23,7 C 14,6 C 18,0 C 12,3 C 45 % 50 % 62 % 1024,9 hPa 0,0 l/m 4,2 km/h (1 Bft) NW 315 4,3 C 14,6 C 10,1 km/h (2 Bft)
18.09.2019 17:52 23,7 C 14,7 C 17,9 C 13,0 C 45 % 50 % 59 % 1024,9 hPa 0,0 l/m 4,3 km/h (1 Bft) SO 135 4,4 C 14,7 C 5,3 km/h (1 Bft)
18.09.2019 17:50 23,7 C 14,7 C 18,1 C 13,3 C 44 % 50 % 58 % 1024,9 hPa 0,0 l/m 4,3 km/h (1 Bft) W-NW 292 4,4 C 14,7 C 9,2 km/h (2 Bft)
18.09.2019 17:48 23,7 C 14,9 C 18,3 C 13,6 C 44 % 50 % 57 % 1024,9 hPa 0,0 l/m 4,7 km/h (1 Bft) NW 315 4,6 C 14,9 C 13,8 km/h (3 Bft)
18.09.2019 17:46 23,7 C 14,9 C 18,5 C 14,1 C 44 % 50 % 55 % 1024,9 hPa 0,0 l/m 4,2 km/h (1 Bft) W-NW 292 4,6 C 14,9 C 11,6 km/h (2 Bft)
18.09.2019 17:44 23,7 C 14,8 C 18,5 C 14,1 C 44 % 50 % 55 % 1024,9 hPa 0,0 l/m 4,2 km/h (1 Bft) N-NO 22 4,5 C 14,8 C 5,8 km/h (2 Bft)
18.09.2019 17:42 23,7 C 14,8 C 18,7 C 13,9 C 43 % 49 % 55 % 1024,9 hPa 0,0 l/m 5,0 km/h (1 Bft) N 360 4,2 C 14,8 C 4,3 km/h (1 Bft)
18.09.2019 17:40 23,7 C 14,8 C 18,8 C 13,7 C 43 % 50 % 56 % 1024,9 hPa 0,0 l/m 5,6 km/h (1 Bft) W-NW 292 4,5 C 14,8 C 5,1 km/h (1 Bft)
18.09.2019 17:38 23,7 C 14,8 C 18,8 C 13,5 C 42 % 50 % 57 % 1024,9 hPa 0,0 l/m 5,6 km/h (1 Bft) NW 315 4,5 C 14,8 C 16,4 km/h (3 Bft)
18.09.2019 17:36 23,7 C 14,7 C 18,6 C 13,6 C 42 % 51 % 58 % 1024,9 hPa 0,0 l/m 4,8 km/h (1 Bft) NW 315 4,7 C 14,7 C 0,0 km/h (0 Bft)
18.09.2019 17:34 23,8 C 14,8 C 18,7 C 14,0 C 41 % 50 % 57 % 1024,9 hPa 0,0 l/m 5,8 km/h (2 Bft) W-NW 292 4,5 C 14,8 C 12,1 km/h (2 Bft)
18.09.2019 17:32 23,8 C 14,9 C 18,9 C 14,7 C 40 % 50 % 54 % 1024,9 hPa 0,0 l/m 5,6 km/h (1 Bft) W 270 4,6 C 14,9 C 9,7 km/h (2 Bft)
18.09.2019 17:30 23,8 C 15,0 C 19,0 C 15,0 C 39 % 49 % 51 % 1025,1 hPa 0,0 l/m 5,6 km/h (1 Bft) W 270 4,4 C 15,0 C 14,2 km/h (3 Bft)
18.09.2019 17:28 23,8 C 15,0 C 19,0 C 15,2 C 40 % 49 % 49 % 1025,1 hPa 0,0 l/m 5,6 km/h (1 Bft) SW 225 4,4 C 15,0 C 12,1 km/h (2 Bft)
18.09.2019 17:26 23,8 C 14,9 C 19,1 C 15,3 C 40 % 49 % 50 % 1025,1 hPa 0,0 l/m 5,8 km/h (2 Bft) W-NW 292 4,3 C 14,9 C 8,7 km/h (2 Bft)
18.09.2019 17:24 23,9 C 15,0 C 19,2 C 15,3 C 40 % 49 % 49 % 1025,1 hPa 0,0 l/m 6,6 km/h (2 Bft) W-NW 292 4,4 C 14,9 C 14,7 km/h (3 Bft)
18.09.2019 17:22 23,9 C 15,0 C 19,4 C 15,4 C 42 % 49 % 50 % 1025,1 hPa 0,0 l/m 6,8 km/h (2 Bft) W-SW 247 4,4 C 14,8 C 8,2 km/h (2 Bft)
18.09.2019 17:20 23,9 C 15,1 C 19,4 C 15,3 C 43 % 50 % 50 % 1025,1 hPa 0,0 l/m 7,7 km/h (2 Bft) SO 135 4,8 C 14,4 C 15,4 km/h (3 Bft)
18.09.2019 17:18 23,9 C 15,1 C 19,1 C 15,3 C 44 % 50 % 50 % 1025,1 hPa 0,0 l/m 7,4 km/h (2 Bft) NW 315 4,8 C 14,5 C 5,6 km/h (1 Bft)
18.09.2019 17:16 23,9 C 15,0 C 19,3 C 15,4 C 44 % 50 % 50 % 1025,1 hPa 0,0 l/m 7,7 km/h (2 Bft) NO 45 4,7 C 14,3 C 12,1 km/h (2 Bft)
18.09.2019 17:14 23,9 C 15,0 C 19,1 C 15,4 C 44 % 50 % 50 % 1025,1 hPa 0,0 l/m 7,6 km/h (2 Bft) W-NW 292 4,7 C 14,3 C 5,8 km/h (2 Bft)
18.09.2019 17:12 23,9 C 15,0 C 19,2 C 15,4 C 44 % 50 % 50 % 1025,1 hPa 0,0 l/m 7,9 km/h (2 Bft) W 270 4,7 C 14,2 C 18,1 km/h (3 Bft)
18.09.2019 17:10 23,9 C 15,0 C 19,1 C 15,4 C 44 % 50 % 49 % 1025,1 hPa 0,0 l/m 7,7 km/h (2 Bft) NW 315 4,7 C 14,3 C 19,6 km/h (3 Bft)
18.09.2019 17:08 23,9 C 14,9 C 19,3 C 15,4 C 44 % 50 % 49 % 1025,1 hPa 0,0 l/m 8,2 km/h (2 Bft) W 270 4,6 C 13,9 C 13,0 km/h (3 Bft)
18.09.2019 17:06 23,9 C 14,9 C 19,4 C 15,5 C 44 % 50 % 49 % 1025,1 hPa 0,0 l/m 8,7 km/h (2 Bft) W 270 4,6 C 13,6 C 9,4 km/h (2 Bft)
18.09.2019 17:04 23,9 C 14,9 C 19,4 C 15,6 C 44 % 50 % 49 % 1025,1 hPa 0,0 l/m 9,2 km/h (2 Bft) NW 315 4,6 C 13,4 C 12,1 km/h (2 Bft)
18.09.2019 17:02 23,9 C 14,9 C 19,2 C 15,5 C 44 % 50 % 49 % 1025,1 hPa 0,0 l/m 10,1 km/h (2 Bft) W-NW 292 4,6 C 13,0 C 18,8 km/h (3 Bft)
18.09.2019 17:00 23,9 C 14,9 C 19,3 C 15,5 C 44 % 50 % 48 % 1025,1 hPa 0,0 l/m 10,6 km/h (2 Bft) W 270 4,6 C 12,7 C 12,6 km/h (3 Bft)
18.09.2019 16:58 23,9 C 14,8 C 19,4 C 15,5 C 44 % 50 % 50 % 1025,1 hPa 0,0 l/m 10,8 km/h (2 Bft) W 270 4,5 C 12,5 C 17,6 km/h (3 Bft)
18.09.2019 16:56 23,9 C 14,9 C 19,8 C 15,6 C 44 % 50 % 51 % 1025,1 hPa 0,0 l/m 10,0 km/h (2 Bft) W-NW 292 4,6 C 13,0 C 14,2 km/h (3 Bft)
18.09.2019 16:54 24,0 C 15,0 C 19,7 C 15,6 C 44 % 50 % 51 % 1025,1 hPa 0,0 l/m 9,5 km/h (2 Bft) W-NW 292 4,7 C 13,3 C 15,0 km/h (3 Bft)
18.09.2019 16:52 23,9 C 15,1 C 20,4 C 15,7 C 45 % 50 % 50 % 1025,1 hPa 0,0 l/m 8,7 km/h (2 Bft) W 270 4,8 C 13,8 C 22,0 km/h (4 Bft)
18.09.2019 16:50 23,9 C 15,2 C 20,4 C 15,8 C 45 % 50 % 50 % 1025,1 hPa 0,0 l/m 8,2 km/h (2 Bft) W-NW 292 4,8 C 14,2 C 27,5 km/h (4 Bft)
18.09.2019 16:48 24,0 C 15,3 C 20,9 C 15,8 C 45 % 50 % 50 % 1025,1 hPa 0,0 l/m 7,4 km/h (2 Bft) W 270 4,9 C 14,7 C 22,2 km/h (4 Bft)
18.09.2019 16:46 23,9 C 15,3 C 21,3 C 15,9 C 45 % 50 % 50 % 1025,1 hPa 0,0 l/m 7,2 km/h (2 Bft) NW 315 4,9 C 14,9 C 12,6 km/h (3 Bft)
18.09.2019 16:44 23,9 C 15,2 C 21,6 C 15,8 C 45 % 51 % 50 % 1025,1 hPa 0,0 l/m 7,1 km/h (2 Bft) N 360 5,1 C 14,8 C 15,2 km/h (3 Bft)
18.09.2019 16:42 23,9 C 15,3 C 21,9 C 15,8 C 45 % 51 % 50 % 1025,1 hPa 0,0 l/m 6,9 km/h (2 Bft) N 360 5,2 C 15,0 C 9,7 km/h (2 Bft)
18.09.2019 16:40 24,0 C 15,3 C 22,2 C 15,8 C 45 % 51 % 50 % 1025,1 hPa 0,0 l/m 6,4 km/h (2 Bft) W-NW 292 5,2 C 15,3 C 19,1 km/h (3 Bft)
18.09.2019 16:38 23,9 C 15,4 C 22,0 C 15,8 C 45 % 51 % 50 % 1025,1 hPa 0,0 l/m 6,0 km/h (2 Bft) W-NW 292 5,3 C 15,4 C 9,2 km/h (2 Bft)
18.09.2019 16:36 23,9 C 15,2 C 21,9 C 15,8 C 45 % 51 % 49 % 1025,1 hPa 0,0 l/m 6,3 km/h (2 Bft) W-NW 292 5,1 C 15,2 C 13,8 km/h (3 Bft)
18.09.2019 16:34 23,9 C 15,2 C 21,5 C 15,7 C 45 % 51 % 49 % 1025,1 hPa 0,0 l/m 6,0 km/h (2 Bft) NW 315 5,1 C 15,2 C 8,2 km/h (2 Bft)
18.09.2019 16:32 23,9 C 15,2 C 21,5 C 15,7 C 45 % 51 % 49 % 1025,1 hPa 0,0 l/m 6,1 km/h (2 Bft) W 270 5,1 C 15,2 C 14,0 km/h (3 Bft)
18.09.2019 16:30 23,9 C 15,2 C 21,9 C 15,9 C 45 % 51 % 50 % 1025,2 hPa 0,0 l/m 5,5 km/h (1 Bft) W 270 5,1 C 15,2 C 3,9 km/h (1 Bft)
18.09.2019 16:28 23,9 C 15,2 C 21,8 C 15,9 C 45 % 51 % 51 % 1025,2 hPa 0,0 l/m 6,4 km/h (2 Bft) W-NW 292 5,1 C 15,2 C 12,8 km/h (3 Bft)
18.09.2019 16:26 23,9 C 15,3 C 21,6 C 15,9 C 45 % 51 % 51 % 1025,2 hPa 0,0 l/m 6,9 km/h (2 Bft) NW 315 5,2 C 15,0 C 12,8 km/h (3 Bft)
18.09.2019 16:24 24,0 C 15,3 C 21,8 C 15,9 C 44 % 51 % 50 % 1025,2 hPa 0,0 l/m 7,7 km/h (2 Bft) W-NW 292 5,2 C 14,6 C 7,0 km/h (2 Bft)
18.09.2019 16:22 23,9 C 15,4 C 21,8 C 15,9 C 44 % 51 % 50 % 1025,2 hPa 0,0 l/m 9,0 km/h (2 Bft) W 270 5,3 C 14,0 C 12,6 km/h (3 Bft)
18.09.2019 16:20 24,0 C 15,4 C 21,6 C 15,9 C 44 % 52 % 50 % 1025,2 hPa 0,0 l/m 8,4 km/h (2 Bft) N-NW 337 5,6 C 14,3 C 5,8 km/h (2 Bft)
18.09.2019 16:18 23,9 C 15,1 C 21,0 C 15,9 C 43 % 52 % 51 % 1025,2 hPa 0,0 l/m 9,0 km/h (2 Bft) W-NW 292 5,3 C 13,7 C 17,6 km/h (3 Bft)
18.09.2019 16:16 24,0 C 15,0 C 21,3 C 15,7 C 43 % 51 % 51 % 1025,2 hPa 0,0 l/m 8,4 km/h (2 Bft) W 270 4,9 C 13,9 C 18,6 km/h (3 Bft)
18.09.2019 16:14 23,9 C 15,1 C 22,1 C 15,7 C 44 % 51 % 51 % 1025,2 hPa 0,0 l/m 7,1 km/h (2 Bft) W 270 5,0 C 14,7 C 21,5 km/h (4 Bft)
18.09.2019 16:12 23,9 C 15,1 C 22,9 C 15,7 C 44 % 51 % 50 % 1025,2 hPa 0,0 l/m 6,1 km/h (2 Bft) W-NW 292 5,0 C 15,1 C 13,3 km/h (3 Bft)
18.09.2019 16:10 23,9 C 15,1 C 23,1 C 15,7 C 44 % 50 % 50 % 1025,6 hPa 0,0 l/m 5,8 km/h (2 Bft) SW 225 4,8 C 15,1 C 0,0 km/h (0 Bft)
18.09.2019 16:08 23,9 C 15,1 C 23,1 C 15,7 C 44 % 50 % 50 % 1025,6 hPa 0,0 l/m 6,1 km/h (2 Bft) W 270 4,8 C 15,1 C 12,1 km/h (2 Bft)
18.09.2019 16:06 23,9 C 15,2 C 23,6 C 15,7 C 44 % 51 % 50 % 1025,6 hPa 0,0 l/m 6,8 km/h (2 Bft) N-NW 337 5,1 C 15,0 C 5,3 km/h (1 Bft)
18.09.2019 16:04 23,9 C 15,1 C 23,1 C 15,6 C 43 % 51 % 50 % 1025,6 hPa 0,0 l/m 6,9 km/h (2 Bft) W-NW 292 5,0 C 14,8 C 3,6 km/h (1 Bft)
18.09.2019 16:02 24,0 C 15,1 C 22,9 C 15,6 C 44 % 52 % 50 % 1025,6 hPa 0,0 l/m 7,1 km/h (2 Bft) W-NW 292 5,3 C 14,7 C 19,1 km/h (3 Bft)
18.09.2019 16:00 24,0 C 15,0 C 22,6 C 15,6 C 44 % 51 % 50 % 1025,6 hPa 0,0 l/m 6,4 km/h (2 Bft) W 270 4,9 C 15,0 C 11,8 km/h (2 Bft)
18.09.2019 15:58 23,9 C 15,0 C 22,4 C 15,7 C 44 % 51 % 50 % 1025,6 hPa 0,0 l/m 6,3 km/h (2 Bft) SW 225 4,9 C 15,0 C 20,5 km/h (4 Bft)
18.09.2019 15:56 24,0 C 15,1 C 22,8 C 15,7 C 45 % 51 % 50 % 1025,6 hPa 0,0 l/m 6,1 km/h (2 Bft) W 270 5,0 C 15,1 C 24,4 km/h (4 Bft)
18.09.2019 15:54 24,0 C 15,0 C 23,4 C 15,7 C 45 % 51 % 51 % 1025,6 hPa 0,0 l/m 5,8 km/h (2 Bft) NW 315 4,9 C 15,0 C 11,6 km/h (2 Bft)
18.09.2019 15:52 24,0 C 15,0 C 23,5 C 15,7 C 45 % 52 % 50 % 1025,6 hPa 0,0 l/m 5,8 km/h (2 Bft) W 270 5,2 C 15,0 C 12,8 km/h (3 Bft)
18.09.2019 15:50 23,9 C 15,0 C 23,5 C 15,9 C 45 % 51 % 49 % 1025,4 hPa 0,0 l/m 6,1 km/h (2 Bft) W-SW 247 4,9 C 15,0 C 7,2 km/h (2 Bft)
18.09.2019 15:48 24,0 C 15,1 C 23,3 C 16,0 C 44 % 51 % 49 % 1025,4 hPa 0,0 l/m 6,6 km/h (2 Bft) N-NO 22 5,0 C 15,0 C 6,3 km/h (2 Bft)
18.09.2019 15:46 24,0 C 15,1 C 22,7 C 15,9 C 44 % 52 % 52 % 1025,4 hPa 0,0 l/m 7,9 km/h (2 Bft) W-NW 292 5,3 C 14,3 C 17,9 km/h (3 Bft)
18.09.2019 15:44 24,0 C 15,0 C 23,2 C 15,8 C 43 % 52 % 50 % 1025,4 hPa 0,0 l/m 8,2 km/h (2 Bft) W-NW 292 5,2 C 14,0 C 16,7 km/h (3 Bft)
18.09.2019 15:42 24,0 C 14,8 C 22,8 C 15,8 C 43 % 52 % 51 % 1025,4 hPa 0,0 l/m 8,4 km/h (2 Bft) W 270 5,0 C 13,7 C 6,3 km/h (2 Bft)
18.09.2019 15:40 24,0 C 14,8 C 22,8 C 15,9 C 43 % 51 % 51 % 1025,4 hPa 0,0 l/m 8,0 km/h (2 Bft) W 270 4,8 C 13,9 C 15,4 km/h (3 Bft)
18.09.2019 15:38 24,0 C 15,0 C 23,1 C 15,8 C 43 % 52 % 52 % 1025,4 hPa 0,0 l/m 7,9 km/h (2 Bft) W-SW 247 5,2 C 14,2 C 17,4 km/h (3 Bft)
18.09.2019 15:36 24,0 C 14,9 C 23,6 C 15,7 C 43 % 52 % 51 % 1025,4 hPa 0,0 l/m 8,2 km/h (2 Bft) N 360 5,1 C 13,9 C 14,5 km/h (3 Bft)
18.09.2019 15:34 24,0 C 15,0 C 25,0 C 15,6 C 43 % 52 % 50 % 1025,4 hPa 0,0 l/m 8,5 km/h (2 Bft) W-SW 247 5,2 C 13,8 C 9,7 km/h (2 Bft)
18.09.2019 15:32 24,0 C 14,8 C 25,2 C 15,7 C 44 % 53 % 51 % 1025,4 hPa 0,0 l/m 8,2 km/h (2 Bft) NO 45 5,3 C 13,8 C 6,8 km/h (2 Bft)
18.09.2019 15:30 24,0 C 14,7 C 24,3 C 15,7 C 43 % 52 % 51 % 1025,6 hPa 0,0 l/m 8,9 km/h (2 Bft) W 270 5,0 C 13,3 C 4,8 km/h (1 Bft)
18.09.2019 15:28 24,0 C 14,7 C 23,3 C 15,7 C 43 % 51 % 51 % 1025,6 hPa 0,0 l/m 10,8 km/h (2 Bft) W 270 4,7 C 12,4 C 12,1 km/h (2 Bft)
18.09.2019 15:26 24,0 C 14,9 C 23,3 C 15,7 C 43 % 52 % 51 % 1025,6 hPa 0,0 l/m 11,3 km/h (2 Bft) W-NW 292 5,1 C 12,4 C 20,3 km/h (4 Bft)
18.09.2019 15:24 24,0 C 15,0 C 24,0 C 15,7 C 44 % 52 % 51 % 1025,6 hPa 0,0 l/m 10,5 km/h (2 Bft) W-NW 292 5,2 C 12,9 C 25,3 km/h (4 Bft)
18.09.2019 15:22 24,0 C 14,9 C 23,8 C 15,7 C 44 % 53 % 51 % 1025,6 hPa 0,0 l/m 9,5 km/h (2 Bft) NW 315 5,4 C 13,2 C 7,5 km/h (2 Bft)
18.09.2019 15:20 24,0 C 14,8 C 23,2 C 15,6 C 43 % 52 % 51 % 1025,6 hPa 0,0 l/m 10,1 km/h (2 Bft) NW 315 5,0 C 12,9 C 8,2 km/h (2 Bft)
18.09.2019 15:18 24,0 C 14,8 C 24,3 C 15,6 C 44 % 52 % 51 % 1025,6 hPa 0,0 l/m 9,3 km/h (2 Bft) W-NW 292 5,0 C 13,2 C 26,3 km/h (4 Bft)
18.09.2019 15:16 24,0 C 14,8 C 25,2 C 15,6 C 44 % 53 % 51 % 1025,6 hPa 0,0 l/m 8,7 km/h (2 Bft) NW 315 5,3 C 13,5 C 13,0 km/h (3 Bft)
18.09.2019 15:14 24,0 C 14,7 C 25,5 C 15,6 C 44 % 53 % 51 % 1025,6 hPa 0,0 l/m 8,5 km/h (2 Bft) W 270 5,2 C 13,5 C 24,1 km/h (4 Bft)
18.09.2019 15:12 24,0 C 14,5 C 25,1 C 15,7 C 44 % 52 % 51 % 1025,6 hPa 0,0 l/m 8,7 km/h (2 Bft) NW 315 4,8 C 13,2 C 13,8 km/h (3 Bft)
18.09.2019 15:10 24,0 C 14,7 C 24,8 C 15,7 C 44 % 53 % 52 % 1025,7 hPa 0,0 l/m 10,0 km/h (2 Bft) W 270 5,2 C 12,8 C 21,5 km/h (4 Bft)
18.09.2019 15:08 24,0 C 14,4 C 24,8 C 15,6 C 44 % 53 % 52 % 1025,7 hPa 0,0 l/m 8,7 km/h (2 Bft) N 360 4,9 C 13,1 C 15,4 km/h (3 Bft)
18.09.2019 15:06 24,0 C 14,5 C 25,1 C 15,5 C 44 % 52 % 53 % 1025,7 hPa 0,0 l/m 8,9 km/h (2 Bft) W 270 4,8 C 13,1 C 21,7 km/h (4 Bft)
18.09.2019 15:04 24,0 C 14,5 C 25,0 C 15,3 C 43 % 52 % 54 % 1025,7 hPa 0,0 l/m 9,7 km/h (2 Bft) SO 135 4,8 C 12,7 C 12,8 km/h (3 Bft)
18.09.2019 15:02 24,0 C 14,6 C 25,0 C 15,3 C 43 % 53 % 53 % 1025,7 hPa 0,0 l/m 10,8 km/h (2 Bft) W-NW 292 5,1 C 12,3 C 20,0 km/h (4 Bft)
18.09.2019 15:00 24,0 C 14,5 C 26,2 C 15,1 C 43 % 53 % 51 % 1025,7 hPa 0,0 l/m 9,8 km/h (2 Bft) W-NW 292 5,0 C 12,7 C 22,0 km/h (4 Bft)
18.09.2019 14:58 24,0 C 14,4 C 24,8 C 15,1 C 42 % 52 % 51 % 1025,7 hPa 0,0 l/m 11,3 km/h (2 Bft) O-NO 67 4,7 C 11,9 C 7,0 km/h (2 Bft)
18.09.2019 14:56 24,0 C 14,3 C 24,4 C 15,2 C 42 % 52 % 51 % 1025,7 hPa 0,0 l/m 11,7 km/h (2 Bft) W 270 4,6 C 11,6 C 19,1 km/h (3 Bft)
18.09.2019 14:54 24,0 C 14,5 C 25,2 C 15,4 C 43 % 52 % 51 % 1025,7 hPa 0,0 l/m 11,4 km/h (2 Bft) W 270 4,8 C 11,9 C 27,0 km/h (4 Bft)
18.09.2019 14:52 24,0 C 14,6 C 26,0 C 15,4 C 43 % 52 % 52 % 1025,7 hPa 0,0 l/m 10,8 km/h (2 Bft) W 270 4,9 C 12,3 C 21,2 km/h (4 Bft)
18.09.2019 14:50 24,0 C 14,6 C 25,9 C 15,4 C 43 % 53 % 51 % 1025,8 hPa 0,0 l/m 10,6 km/h (2 Bft) W-NW 292 5,1 C 12,4 C 21,0 km/h (4 Bft)
18.09.2019 14:48 24,1 C 14,6 C 25,9 C 15,4 C 43 % 53 % 52 % 1025,8 hPa 0,0 l/m 10,6 km/h (2 Bft) W-NW 292 5,1 C 12,4 C 24,9 km/h (4 Bft)
18.09.2019 14:46 24,1 C 14,6 C 26,7 C 15,4 C 43 % 53 % 51 % 1025,8 hPa 0,0 l/m 10,6 km/h (2 Bft) NW 315 5,1 C 12,4 C 18,1 km/h (3 Bft)
18.09.2019 14:44 24,1 C 14,6 C 26,1 C 15,4 C 43 % 53 % 51 % 1025,8 hPa 0,0 l/m 11,4 km/h (2 Bft) W 270 5,1 C 12,1 C 20,8 km/h (4 Bft)
18.09.2019 14:42 24,1 C 14,5 C 26,3 C 15,3 C 43 % 53 % 51 % 1025,8 hPa 0,0 l/m 10,6 km/h (2 Bft) NW 315 5,0 C 12,3 C 17,6 km/h (3 Bft)
18.09.2019 14:40 24,1 C 14,4 C 25,0 C 15,3 C 43 % 54 % 52 % 1025,8 hPa 0,0 l/m 11,6 km/h (2 Bft) NW 315 5,2 C 11,7 C 19,6 km/h (3 Bft)
18.09.2019 14:38 24,1 C 14,3 C 25,4 C 15,2 C 43 % 53 % 52 % 1025,8 hPa 0,0 l/m 10,5 km/h (2 Bft) W-NW 292 4,9 C 12,1 C 23,4 km/h (4 Bft)
18.09.2019 14:36 24,1 C 14,3 C 26,0 C 15,3 C 43 % 53 % 52 % 1025,8 hPa 0,0 l/m 10,1 km/h (2 Bft) W 270 4,9 C 12,3 C 18,8 km/h (3 Bft)
18.09.2019 14:34 24,1 C 14,4 C 25,8 C 15,5 C 43 % 53 % 53 % 1025,8 hPa 0,0 l/m 11,4 km/h (2 Bft) W 270 4,9 C 11,8 C 18,1 km/h (3 Bft)
18.09.2019 14:32 24,1 C 14,4 C 25,6 C 15,5 C 43 % 53 % 53 % 1025,8 hPa 0,0 l/m 11,9 km/h (2 Bft) W 270 4,9 C 11,6 C 18,8 km/h (3 Bft)
18.09.2019 14:30 24,1 C 14,4 C 25,6 C 15,4 C 43 % 54 % 52 % 1026,2 hPa 0,0 l/m 11,9 km/h (2 Bft) W 270 5,2 C 11,6 C 16,9 km/h (3 Bft)
18.09.2019 14:28 24,1 C 14,3 C 25,1 C 15,4 C 43 % 54 % 52 % 1026,2 hPa 0,0 l/m 12,1 km/h (2 Bft) W 270 5,1 C 11,4 C 12,6 km/h (3 Bft)
18.09.2019 14:26 24,2 C 14,2 C 24,4 C 15,4 C 43 % 53 % 51 % 1026,2 hPa 0,0 l/m 12,6 km/h (3 Bft) W 270 4,8 C 11,1 C 21,0 km/h (4 Bft)
18.09.2019 14:24 24,2 C 14,2 C 24,3 C 15,3 C 43 % 53 % 52 % 1026,2 hPa 0,0 l/m 11,9 km/h (2 Bft) W-NW 292 4,8 C 11,4 C 27,8 km/h (4 Bft)
18.09.2019 14:22 24,2 C 14,3 C 25,9 C 15,3 C 44 % 53 % 52 % 1026,2 hPa 0,0 l/m 10,0 km/h (2 Bft) NW 315 4,9 C 12,3 C 20,0 km/h (4 Bft)
18.09.2019 14:20 24,2 C 14,4 C 25,9 C 15,2 C 44 % 53 % 53 % 1026,2 hPa 0,0 l/m 8,7 km/h (2 Bft) W-NW 292 4,9 C 13,1 C 13,0 km/h (3 Bft)
18.09.2019 14:18 24,2 C 14,5 C 26,4 C 15,2 C 44 % 53 % 52 % 1026,2 hPa 0,0 l/m 8,2 km/h (2 Bft) W-NW 292 5,0 C 13,5 C 20,0 km/h (4 Bft)
18.09.2019 14:16 24,2 C 14,6 C 27,0 C 15,3 C 44 % 52 % 52 % 1026,2 hPa 0,0 l/m 7,2 km/h (2 Bft) W 270 4,9 C 14,1 C 16,4 km/h (3 Bft)
18.09.2019 14:14 24,2 C 14,9 C 26,6 C 15,3 C 45 % 53 % 52 % 1026,2 hPa 0,0 l/m 7,4 km/h (2 Bft) W 270 5,4 C 14,3 C 16,4 km/h (3 Bft)
18.09.2019 14:12 24,2 C 14,7 C 27,5 C 15,3 C 45 % 54 % 53 % 1026,2 hPa 0,0 l/m 6,6 km/h (2 Bft) N 360 5,5 C 14,6 C 11,3 km/h (2 Bft)
18.09.2019 14:10 24,2 C 14,7 C 27,6 C 15,3 C 44 % 53 % 53 % 1026,4 hPa 0,0 l/m 7,2 km/h (2 Bft) NO 45 5,2 C 14,2 C 5,3 km/h (1 Bft)
18.09.2019 14:08 24,2 C 14,6 C 27,3 C 15,3 C 44 % 54 % 52 % 1026,4 hPa 0,0 l/m 9,3 km/h (2 Bft) NW 315 5,4 C 13,0 C 11,3 km/h (2 Bft)
18.09.2019 14:06 24,2 C 14,4 C 26,8 C 15,3 C 45 % 54 % 53 % 1026,4 hPa 0,0 l/m 9,8 km/h (2 Bft) N-NW 337 5,2 C 12,5 C 19,8 km/h (3 Bft)
18.09.2019 14:04 24,2 C 14,0 C 26,8 C 15,1 C 44 % 54 % 52 % 1026,4 hPa 0,0 l/m 9,8 km/h (2 Bft) O-SO 112 4,8 C 12,1 C 19,8 km/h (3 Bft)
18.09.2019 14:02 24,2 C 14,0 C 25,9 C 15,2 C 44 % 53 % 53 % 1026,4 hPa 0,0 l/m 10,1 km/h (2 Bft) N-NW 337 4,6 C 12,0 C 15,0 km/h (3 Bft)
18.09.2019 14:00 24,2 C 14,1 C 24,7 C 15,1 C 44 % 53 % 52 % 1026,4 hPa 0,0 l/m 10,3 km/h (2 Bft) NW 315 4,7 C 12,0 C 14,5 km/h (3 Bft)
18.09.2019 13:58 24,2 C 14,0 C 26,0 C 15,1 C 44 % 54 % 52 % 1026,4 hPa 0,0 l/m 9,5 km/h (2 Bft) W-NW 292 4,8 C 12,3 C 25,6 km/h (4 Bft)
18.09.2019 13:56 24,2 C 13,9 C 26,1 C 15,2 C 43 % 53 % 52 % 1026,4 hPa 0,0 l/m 8,0 km/h (2 Bft) W-NW 292 4,5 C 12,9 C 18,8 km/h (3 Bft)
18.09.2019 13:54 24,2 C 14,0 C 26,7 C 15,2 C 43 % 53 % 53 % 1026,4 hPa 0,0 l/m 8,4 km/h (2 Bft) W 270 4,6 C 12,8 C 17,4 km/h (3 Bft)
18.09.2019 13:52 24,2 C 14,0 C 26,7 C 15,2 C 43 % 53 % 52 % 1026,4 hPa 0,0 l/m 8,7 km/h (2 Bft) W 270 4,6 C 12,7 C 11,1 km/h (2 Bft)
18.09.2019 13:50 24,2 C 14,1 C 26,8 C 15,2 C 44 % 53 % 53 % 1026,8 hPa 0,0 l/m 10,9 km/h (2 Bft) W 270 4,7 C 11,7 C 19,6 km/h (3 Bft)
18.09.2019 13:48 24,2 C 14,2 C 26,7 C 15,1 C 44 % 54 % 53 % 1026,8 hPa 0,0 l/m 11,1 km/h (2 Bft) W-NW 292 5,0 C 11,7 C 10,9 km/h (2 Bft)
18.09.2019 13:46 24,3 C 14,1 C 25,7 C 15,0 C 43 % 55 % 53 % 1026,8 hPa 0,0 l/m 10,6 km/h (2 Bft) W-NW 292 5,2 C 11,8 C 14,5 km/h (3 Bft)
18.09.2019 13:44 24,3 C 13,9 C 24,1 C 14,9 C 43 % 54 % 53 % 1026,8 hPa 0,0 l/m 10,9 km/h (2 Bft) W-NW 292 4,7 C 11,5 C 16,9 km/h (3 Bft)
18.09.2019 13:42 24,3 C 14,0 C 23,9 C 15,0 C 43 % 53 % 53 % 1026,8 hPa 0,0 l/m 10,8 km/h (2 Bft) W 270 4,6 C 11,6 C 17,6 km/h (3 Bft)
18.09.2019 13:40 24,2 C 14,4 C 26,4 C 15,3 C 44 % 53 % 54 % 1026,8 hPa 0,0 l/m 10,0 km/h (2 Bft) W 270 4,9 C 12,5 C 27,0 km/h (4 Bft)
18.09.2019 13:38 24,2 C 14,5 C 26,4 C 15,2 C 44 % 54 % 54 % 1026,8 hPa 0,0 l/m 8,7 km/h (2 Bft) W-NW 292 5,3 C 13,2 C 17,9 km/h (3 Bft)
18.09.2019 13:36 24,2 C 14,3 C 25,1 C 15,2 C 43 % 55 % 55 % 1026,8 hPa 0,0 l/m 9,7 km/h (2 Bft) N-NW 337 5,4 C 12,5 C 8,7 km/h (2 Bft)
18.09.2019 13:34 24,4 C 14,0 C 24,1 C 15,1 C 43 % 55 % 54 % 1026,8 hPa 0,0 l/m 12,6 km/h (3 Bft) NO 45 5,1 C 10,9 C 18,6 km/h (3 Bft)
18.09.2019 13:32 24,4 C 13,9 C 25,2 C 15,1 C 43 % 54 % 54 % 1026,8 hPa 0,0 l/m 13,0 km/h (3 Bft) NW 315 4,7 C 10,6 C 17,1 km/h (3 Bft)
18.09.2019 13:30 24,4 C 14,0 C 24,8 C 15,1 C 42 % 54 % 53 % 1026,8 hPa 0,0 l/m 14,3 km/h (3 Bft) W-NW 292 4,8 C 10,2 C 9,4 km/h (2 Bft)
18.09.2019 13:28 24,4 C 14,0 C 24,1 C 15,2 C 42 % 54 % 54 % 1026,8 hPa 0,0 l/m 15,1 km/h (3 Bft) W-NW 292 4,8 C 9,9 C 13,8 km/h (3 Bft)
18.09.2019 13:26 24,4 C 13,9 C 23,6 C 15,2 C 42 % 55 % 55 % 1026,8 hPa 0,0 l/m 15,9 km/h (3 Bft) W-NW 292 5,0 C 9,6 C 24,9 km/h (4 Bft)
18.09.2019 13:24 24,5 C 13,9 C 23,4 C 15,1 C 42 % 55 % 54 % 1026,8 hPa 0,0 l/m 15,1 km/h (3 Bft) W-NW 292 5,0 C 9,8 C 33,3 km/h (5 Bft)
18.09.2019 13:22 24,5 C 14,0 C 24,3 C 15,1 C 42 % 54 % 54 % 1026,8 hPa 0,0 l/m 14,8 km/h (3 Bft) W-NW 292 4,8 C 10,1 C 29,9 km/h (5 Bft)
18.09.2019 13:20 24,6 C 14,1 C 25,3 C 15,1 C 42 % 55 % 55 % 1026,8 hPa 0,0 l/m 14,8 km/h (3 Bft) W 270 5,2 C 10,2 C 27,3 km/h (4 Bft)
18.09.2019 13:18 24,6 C 14,1 C 24,8 C 15,0 C 42 % 55 % 55 % 1026,8 hPa 0,0 l/m 14,5 km/h (3 Bft) W-NW 292 5,2 C 10,3 C 24,4 km/h (4 Bft)
18.09.2019 13:16 24,6 C 14,0 C 24,3 C 15,0 C 42 % 55 % 54 % 1026,8 hPa 0,0 l/m 13,0 km/h (3 Bft) W-NW 292 5,1 C 10,7 C 24,6 km/h (4 Bft)
18.09.2019 13:14 24,6 C 13,9 C 24,4 C 14,9 C 42 % 54 % 54 % 1026,8 hPa 0,0 l/m 12,9 km/h (3 Bft) W 270 4,7 C 10,6 C 25,3 km/h (4 Bft)
18.09.2019 13:12 24,7 C 13,9 C 23,7 C 14,9 C 42 % 53 % 53 % 1026,8 hPa 0,0 l/m 12,6 km/h (3 Bft) W-NW 292 4,5 C 10,8 C 20,5 km/h (4 Bft)
18.09.2019 13:10 24,7 C 13,9 C 25,3 C 14,8 C 43 % 55 % 54 % 1026,8 hPa 0,0 l/m 11,6 km/h (2 Bft) W-NW 292 5,0 C 11,2 C 29,0 km/h (5 Bft)
18.09.2019 13:08 24,7 C 13,9 C 25,6 C 14,8 C 43 % 54 % 54 % 1026,8 hPa 0,0 l/m 9,8 km/h (2 Bft) W 270 4,7 C 12,0 C 22,9 km/h (4 Bft)
18.09.2019 13:06 24,7 C 13,8 C 24,7 C 14,7 C 43 % 54 % 55 % 1026,8 hPa 0,0 l/m 10,1 km/h (2 Bft) NW 315 4,7 C 11,7 C 7,7 km/h (2 Bft)
18.09.2019 13:04 24,8 C 13,9 C 24,9 C 14,7 C 43 % 54 % 54 % 1026,8 hPa 0,0 l/m 9,0 km/h (2 Bft) NW 315 4,7 C 12,4 C 22,7 km/h (4 Bft)
18.09.2019 13:02 24,8 C 14,1 C 25,2 C 14,8 C 44 % 54 % 55 % 1026,8 hPa 0,0 l/m 8,2 km/h (2 Bft) W-NW 292 4,9 C 13,0 C 21,7 km/h (4 Bft)
18.09.2019 13:00 24,8 C 14,3 C 27,1 C 14,8 C 45 % 53 % 57 % 1026,8 hPa 0,0 l/m 7,1 km/h (2 Bft) W 270 4,9 C 13,9 C 20,5 km/h (4 Bft)
18.09.2019 12:58 24,8 C 14,4 C 27,4 C 14,6 C 45 % 54 % 56 % 1026,8 hPa 0,0 l/m 6,8 km/h (2 Bft) NO 45 5,2 C 14,2 C 9,2 km/h (2 Bft)
18.09.2019 12:56 24,8 C 14,2 C 27,4 C 14,5 C 45 % 54 % 55 % 1026,8 hPa 0,0 l/m 6,8 km/h (2 Bft) N-NO 22 5,0 C 14,0 C 17,9 km/h (3 Bft)
18.09.2019 12:54 24,8 C 14,0 C 27,1 C 14,3 C 44 % 54 % 54 % 1026,8 hPa 0,0 l/m 5,5 km/h (1 Bft) O-SO 112 4,8 C 14,0 C 12,6 km/h (3 Bft)
18.09.2019 12:52 24,8 C 14,1 C 27,6 C 14,3 C 45 % 53 % 54 % 1026,8 hPa 0,0 l/m 5,3 km/h (1 Bft) W 270 4,7 C 14,1 C 16,7 km/h (3 Bft)
18.09.2019 12:50 24,8 C 14,1 C 27,8 C 14,5 C 45 % 54 % 54 % 1027,1 hPa 0,0 l/m 5,3 km/h (1 Bft) SW 225 4,9 C 14,1 C 17,9 km/h (3 Bft)
18.09.2019 12:48 24,8 C 13,9 C 28,5 C 14,3 C 45 % 53 % 54 % 1027,1 hPa 0,0 l/m 5,0 km/h (1 Bft) W 270 4,5 C 13,9 C 11,1 km/h (2 Bft)
18.09.2019 12:46 24,8 C 13,9 C 28,7 C 14,3 C 45 % 52 % 53 % 1027,1 hPa 0,0 l/m 4,8 km/h (1 Bft) N-NW 337 4,2 C 13,9 C 13,0 km/h (3 Bft)
18.09.2019 12:44 24,8 C 13,5 C 26,6 C 14,1 C 45 % 52 % 53 % 1027,1 hPa 0,0 l/m 5,6 km/h (1 Bft) S-SW 202 3,8 C 13,5 C 2,9 km/h (1 Bft)
18.09.2019 12:42 24,8 C 13,4 C 26,7 C 14,1 C 45 % 52 % 52 % 1027,1 hPa 0,0 l/m 6,8 km/h (2 Bft) W-NW 292 3,7 C 13,2 C 8,0 km/h (2 Bft)
18.09.2019 12:40 24,9 C 13,3 C 26,8 C 14,0 C 45 % 54 % 57 % 1027,1 hPa 0,0 l/m 6,9 km/h (2 Bft) NO 45 4,2 C 13,0 C 15,9 km/h (3 Bft)
18.09.2019 12:38 24,8 C 13,2 C 27,0 C 14,0 C 45 % 56 % 57 % 1027,1 hPa 0,0 l/m 8,0 km/h (2 Bft) NW 315 4,6 C 12,2 C 16,4 km/h (3 Bft)
18.09.2019 12:36 24,9 C 13,1 C 25,5 C 13,8 C 45 % 56 % 57 % 1027,1 hPa 0,0 l/m 8,2 km/h (2 Bft) O 90 4,5 C 12,0 C 8,0 km/h (2 Bft)
18.09.2019 12:34 24,9 C 13,1 C 25,1 C 13,8 C 45 % 57 % 57 % 1027,1 hPa 0,0 l/m 8,0 km/h (2 Bft) N-NW 337 4,8 C 12,1 C 15,2 km/h (3 Bft)
18.09.2019 12:32 24,9 C 13,0 C 24,7 C 13,7 C 45 % 56 % 56 % 1027,1 hPa 0,0 l/m 7,6 km/h (2 Bft) W-NW 292 4,4 C 12,2 C 11,6 km/h (2 Bft)
18.09.2019 12:30 24,8 C 13,0 C 24,8 C 13,8 C 46 % 55 % 55 % 1027,1 hPa 0,0 l/m 7,1 km/h (2 Bft) W-NW 292 4,2 C 12,6 C 12,1 km/h (2 Bft)
18.09.2019 12:28 24,9 C 13,1 C 26,0 C 13,9 C 47 % 56 % 56 % 1027,1 hPa 0,0 l/m 6,6 km/h (2 Bft) W 270 4,5 C 13,0 C 20,3 km/h (4 Bft)
18.09.2019 12:26 24,9 C 13,1 C 26,0 C 13,7 C 47 % 54 % 54 % 1027,1 hPa 0,0 l/m 7,1 km/h (2 Bft) W 270 4,0 C 12,7 C 7,7 km/h (2 Bft)
18.09.2019 12:24 24,8 C 13,3 C 24,7 C 13,7 C 47 % 54 % 54 % 1027,1 hPa 0,0 l/m 8,5 km/h (2 Bft) NW 315 4,2 C 12,0 C 9,9 km/h (2 Bft)
18.09.2019 12:22 24,8 C 13,3 C 24,6 C 13,7 C 47 % 54 % 54 % 1027,1 hPa 0,0 l/m 10,3 km/h (2 Bft) N 360 4,2 C 11,1 C 17,1 km/h (3 Bft)
18.09.2019 12:20 24,8 C 13,2 C 24,5 C 13,8 C 47 % 55 % 54 % 1027,1 hPa 0,0 l/m 11,4 km/h (2 Bft) N 360 4,4 C 10,5 C 8,0 km/h (2 Bft)
18.09.2019 12:18 24,8 C 13,0 C 23,2 C 13,8 C 47 % 56 % 56 % 1027,1 hPa 0,0 l/m 12,2 km/h (2 Bft) NW 315 4,4 C 9,9 C 17,9 km/h (3 Bft)
18.09.2019 12:16 24,8 C 12,9 C 22,3 C 13,8 C 47 % 56 % 56 % 1027,1 hPa 0,0 l/m 11,6 km/h (2 Bft) NW 315 4,3 C 10,0 C 25,8 km/h (4 Bft)
18.09.2019 12:14 24,8 C 13,4 C 24,8 C 13,8 C 47 % 56 % 59 % 1027,1 hPa 0,0 l/m 4,5 km/h (1 Bft) SO 135 4,8 C 13,4 C 4,1 km/h (1 Bft)
18.09.2019 12:12 24,8 C 13,4 C 24,8 C 13,8 C 48 % 56 % 59 % 1027,1 hPa 0,0 l/m 4,5 km/h (1 Bft) SO 135 4,8 C 13,4 C 4,1 km/h (1 Bft)
18.09.2019 12:10 24,7 C 13,4 C 24,8 C 13,8 C 48 % 56 % 59 % 1026,9 hPa 0,0 l/m 4,5 km/h (1 Bft) SO 135 4,8 C 13,4 C 4,1 km/h (1 Bft)
18.09.2019 12:08 24,7 C 13,4 C 24,8 C 13,8 C 49 % 56 % 59 % 1026,9 hPa 0,0 l/m 4,5 km/h (1 Bft) SO 135 4,8 C 13,4 C 4,1 km/h (1 Bft)
18.09.2019 12:06 24,7 C 13,4 C 24,8 C 13,8 C 50 % 56 % 59 % 1026,9 hPa 0,0 l/m 4,5 km/h (1 Bft) SO 135 4,8 C 13,4 C 4,1 km/h (1 Bft)
18.09.2019 12:04 24,7 C 13,4 C 24,8 C 13,8 C 50 % 56 % 59 % 1026,9 hPa 0,0 l/m 4,5 km/h (1 Bft) SO 135 4,8 C 13,4 C 4,1 km/h (1 Bft)
18.09.2019 12:02 24,7 C 13,4 C 25,3 C 13,7 C 50 % 55 % 59 % 1026,9 hPa 0,0 l/m 4,5 km/h (1 Bft) N-NO 22 4,5 C 13,4 C 8,0 km/h (2 Bft)
18.09.2019 12:00 24,6 C 13,4 C 25,6 C 13,6 C 50 % 56 % 59 % 1026,9 hPa 0,0 l/m 4,0 km/h (1 Bft) NW 315 4,8 C 13,4 C 4,6 km/h (1 Bft)
18.09.2019 11:58 24,6 C 13,3 C 25,3 C 13,6 C 50 % 56 % 59 % 1026,9 hPa 0,0 l/m 4,2 km/h (1 Bft) N 360 4,7 C 13,3 C 6,5 km/h (2 Bft)
18.09.2019 11:56 24,6 C 13,3 C 25,5 C 13,5 C 50 % 57 % 58 % 1026,9 hPa 0,0 l/m 3,9 km/h (1 Bft) NO 45 5,0 C 13,3 C 15,9 km/h (3 Bft)
18.09.2019 11:54 24,6 C 13,1 C 24,9 C 13,6 C 50 % 58 % 58 % 1026,9 hPa 0,0 l/m 2,4 km/h (1 Bft) N-NO 22 5,0 C 13,1 C 8,4 km/h (2 Bft)
18.09.2019 11:52 24,5 C 13,0 C 24,8 C 13,7 C 50 % 59 % 60 % 1026,9 hPa 0,0 l/m 2,6 km/h (1 Bft) SW 225 5,2 C 13,0 C 6,0 km/h (2 Bft)
18.09.2019 11:50 24,4 C 12,9 C 24,8 C 13,6 C 50 % 59 % 61 % 1026,9 hPa 0,0 l/m 3,5 km/h (1 Bft) W-SW 247 5,1 C 12,9 C 10,9 km/h (2 Bft)
18.09.2019 11:48 24,5 C 13,0 C 25,8 C 13,5 C 50 % 57 % 60 % 1026,9 hPa 0,0 l/m 4,0 km/h (1 Bft) O-NO 67 4,7 C 13,0 C 4,8 km/h (1 Bft)
18.09.2019 11:46 24,4 C 13,1 C 25,9 C 13,4 C 50 % 57 % 60 % 1026,9 hPa 0,0 l/m 3,9 km/h (1 Bft) N 360 4,8 C 13,1 C 7,7 km/h (2 Bft)
18.09.2019 11:44 24,4 C 13,1 C 25,4 C 13,3 C 50 % 57 % 59 % 1026,9 hPa 0,0 l/m 5,0 km/h (1 Bft) O-NO 67 4,8 C 13,1 C 0,0 km/h (0 Bft)
18.09.2019 11:42 24,4 C 13,1 C 24,8 C 13,3 C 50 % 57 % 59 % 1026,9 hPa 0,0 l/m 5,8 km/h (2 Bft) O-NO 67 4,8 C 13,1 C 8,7 km/h (2 Bft)
18.09.2019 11:40 24,4 C 13,1 C 24,0 C 13,2 C 51 % 57 % 58 % 1026,9 hPa 0,0 l/m 5,3 km/h (1 Bft) N-NW 337 4,8 C 13,1 C 9,4 km/h (2 Bft)
18.09.2019 11:38 24,4 C 13,1 C 24,3 C 13,2 C 51 % 58 % 58 % 1026,9 hPa 0,0 l/m 4,3 km/h (1 Bft) O 90 5,0 C 13,1 C 10,9 km/h (2 Bft)
18.09.2019 11:36 24,4 C 12,9 C 24,3 C 13,3 C 51 % 59 % 58 % 1026,9 hPa 0,0 l/m 4,0 km/h (1 Bft) N-NO 22 5,1 C 12,9 C 8,2 km/h (2 Bft)
18.09.2019 11:34 24,2 C 12,9 C 24,3 C 13,2 C 51 % 57 % 59 % 1026,9 hPa 0,0 l/m 3,5 km/h (1 Bft) NW 315 4,6 C 12,9 C 11,8 km/h (2 Bft)
18.09.2019 11:32 24,3 C 12,8 C 24,4 C 13,2 C 51 % 60 % 60 % 1026,9 hPa 0,0 l/m 2,7 km/h (1 Bft) NO 45 5,2 C 12,8 C 11,8 km/h (2 Bft)
18.09.2019 11:30 24,3 C 12,4 C 25,2 C 13,1 C 51 % 60 % 60 % 1026,9 hPa 0,0 l/m 2,4 km/h (1 Bft) O-NO 67 4,9 C 12,4 C 5,6 km/h (1 Bft)
18.09.2019 11:28 24,3 C 12,2 C 24,5 C 13,1 C 51 % 59 % 60 % 1026,9 hPa 0,0 l/m 3,7 km/h (1 Bft) O-NO 67 4,4 C 12,2 C 4,1 km/h (1 Bft)
18.09.2019 11:26 24,3 C 12,4 C 24,5 C 13,1 C 51 % 59 % 60 % 1026,9 hPa 0,0 l/m 4,7 km/h (1 Bft) W 270 4,6 C 12,4 C 0,0 km/h (0 Bft)
18.09.2019 11:24 24,2 C 12,6 C 23,9 C 13,1 C 52 % 59 % 61 % 1026,9 hPa 0,0 l/m 5,0 km/h (1 Bft) W 270 4,8 C 12,6 C 6,8 km/h (2 Bft)
18.09.2019 11:22 24,2 C 12,5 C 23,1 C 13,0 C 52 % 59 % 62 % 1026,9 hPa 0,0 l/m 5,6 km/h (1 Bft) N-NO 22 4,7 C 12,5 C 3,9 km/h (1 Bft)
18.09.2019 11:20 24,2 C 12,7 C 22,2 C 12,6 C 52 % 59 % 63 % 1026,9 hPa 0,0 l/m 6,8 km/h (2 Bft) N-NW 337 4,9 C 12,5 C 8,9 km/h (2 Bft)
18.09.2019 11:18 24,2 C 12,7 C 22,1 C 12,5 C 52 % 58 % 63 % 1026,9 hPa 0,0 l/m 7,4 km/h (2 Bft) N 360 4,7 C 12,1 C 16,2 km/h (3 Bft)
18.09.2019 11:16 24,2 C 12,7 C 22,1 C 12,3 C 52 % 59 % 62 % 1026,9 hPa 0,0 l/m 6,9 km/h (2 Bft) N-NO 22 4,9 C 12,4 C 16,2 km/h (3 Bft)
18.09.2019 11:14 24,2 C 12,5 C 21,6 C 12,2 C 52 % 59 % 62 % 1026,9 hPa 0,0 l/m 6,6 km/h (2 Bft) SO 135 4,7 C 12,4 C 4,6 km/h (1 Bft)
18.09.2019 11:12 24,2 C 12,3 C 20,9 C 12,1 C 52 % 57 % 61 % 1026,9 hPa 0,0 l/m 6,4 km/h (2 Bft) O-SO 112 4,0 C 12,3 C 10,9 km/h (2 Bft)
18.09.2019 11:10 24,2 C 12,2 C 20,4 C 12,2 C 52 % 57 % 61 % 1027,0 hPa 0,0 l/m 6,3 km/h (2 Bft) NO 45 3,9 C 12,2 C 15,9 km/h (3 Bft)
18.09.2019 11:08 24,2 C 12,1 C 20,5 C 12,3 C 52 % 57 % 61 % 1027,0 hPa 0,0 l/m 5,3 km/h (1 Bft) NO 45 3,8 C 12,1 C 16,7 km/h (3 Bft)
18.09.2019 11:06 24,1 C 12,1 C 20,4 C 12,3 C 52 % 55 % 60 % 1027,0 hPa 0,0 l/m 5,0 km/h (1 Bft) O 90 3,3 C 12,1 C 10,6 km/h (2 Bft)
18.09.2019 11:04 24,1 C 12,2 C 20,6 C 12,2 C 52 % 56 % 60 % 1027,0 hPa 0,0 l/m 5,3 km/h (1 Bft) N 360 3,7 C 12,2 C 11,6 km/h (2 Bft)
18.09.2019 11:02 24,1 C 12,3 C 20,3 C 12,2 C 52 % 56 % 61 % 1027,0 hPa 0,0 l/m 5,5 km/h (1 Bft) SW 225 3,8 C 12,3 C 0,0 km/h (0 Bft)
18.09.2019 11:00 24,1 C 12,4 C 20,9 C 12,1 C 52 % 59 % 62 % 1027,0 hPa 0,0 l/m 5,1 km/h (1 Bft) N-NO 22 4,6 C 12,4 C 15,7 km/h (3 Bft)
18.09.2019 10:58 24,1 C 12,4 C 20,6 C 11,9 C 52 % 60 % 62 % 1027,0 hPa 0,0 l/m 4,7 km/h (1 Bft) O-SO 112 4,9 C 12,4 C 9,7 km/h (2 Bft)
18.09.2019 10:56 24,1 C 12,1 C 19,7 C 11,8 C 52 % 61 % 62 % 1027,0 hPa 0,0 l/m 4,7 km/h (1 Bft) S 180 4,8 C 12,1 C 9,2 km/h (2 Bft)
18.09.2019 10:54 24,1 C 11,9 C 18,9 C 11,5 C 52 % 60 % 62 % 1027,0 hPa 0,0 l/m 4,8 km/h (1 Bft) NO 45 4,4 C 11,9 C 11,8 km/h (2 Bft)
18.09.2019 10:52 24,1 C 11,7 C 18,8 C 11,3 C 52 % 59 % 63 % 1027,0 hPa 0,0 l/m 5,3 km/h (1 Bft) N-NO 22 4,0 C 11,7 C 13,0 km/h (3 Bft)
18.09.2019 10:50 24,1 C 11,7 C 18,7 C 11,4 C 52 % 61 % 62 % 1026,6 hPa 0,0 l/m 6,4 km/h (2 Bft) N-NW 337 4,4 C 11,7 C 9,7 km/h (2 Bft)
18.09.2019 10:48 24,0 C 11,5 C 18,5 C 11,5 C 52 % 63 % 62 % 1026,6 hPa 0,0 l/m 6,9 km/h (2 Bft) N 360 4,7 C 11,2 C 5,1 km/h (1 Bft)
18.09.2019 10:46 24,1 C 11,5 C 17,8 C 11,6 C 52 % 63 % 63 % 1026,6 hPa 0,0 l/m 7,7 km/h (2 Bft) NW 315 4,7 C 10,6 C 9,9 km/h (2 Bft)
18.09.2019 10:44 24,0 C 11,4 C 17,8 C 11,6 C 52 % 63 % 65 % 1026,6 hPa 0,0 l/m 6,8 km/h (2 Bft) NW 315 4,6 C 11,1 C 17,4 km/h (3 Bft)
18.09.2019 10:42 24,0 C 11,3 C 17,8 C 11,5 C 52 % 63 % 65 % 1026,6 hPa 0,0 l/m 5,5 km/h (1 Bft) W-NW 292 4,5 C 11,3 C 17,1 km/h (3 Bft)
18.09.2019 10:40 24,0 C 11,3 C 18,3 C 11,1 C 52 % 63 % 65 % 1026,6 hPa 0,0 l/m 4,2 km/h (1 Bft) NW 315 4,5 C 11,3 C 26,1 km/h (4 Bft)
18.09.2019 10:38 24,0 C 11,3 C 18,3 C 11,1 C 52 % 63 % 64 % 1026,6 hPa 0,0 l/m 3,2 km/h (1 Bft) W-SW 247 4,5 C 11,3 C 10,1 km/h (2 Bft)
18.09.2019 10:36 24,0 C 11,3 C 17,7 C 11,1 C 52 % 63 % 65 % 1026,6 hPa 0,0 l/m 2,3 km/h (1 Bft) W 270 4,5 C 11,3 C 11,1 km/h (2 Bft)
18.09.2019 10:34 24,0 C 11,1 C 17,1 C 11,3 C 53 % 64 % 65 % 1026,6 hPa 0,0 l/m 2,9 km/h (1 Bft) W 270 4,6 C 11,1 C 0,0 km/h (0 Bft)
18.09.2019 10:32 24,0 C 11,3 C 17,0 C 11,1 C 53 % 63 % 67 % 1026,6 hPa 0,0 l/m 3,9 km/h (1 Bft) W-NW 292 4,5 C 11,3 C 0,0 km/h (0 Bft)
18.09.2019 10:30 24,0 C 11,3 C 16,8 C 11,1 C 53 % 63 % 67 % 1026,6 hPa 0,0 l/m 4,2 km/h (1 Bft) N-NO 22 4,5 C 11,3 C 4,6 km/h (1 Bft)
18.09.2019 10:28 24,0 C 11,1 C 15,7 C 11,0 C 53 % 63 % 67 % 1026,6 hPa 0,0 l/m 5,0 km/h (1 Bft) N 360 4,3 C 11,1 C 6,8 km/h (2 Bft)
18.09.2019 10:26 24,0 C 11,1 C 15,7 C 10,7 C 53 % 63 % 66 % 1026,6 hPa 0,0 l/m 4,8 km/h (1 Bft) N 360 4,3 C 11,1 C 5,8 km/h (2 Bft)
18.09.2019 10:24 24,0 C 11,4 C 16,0 C 10,7 C 52 % 63 % 66 % 1026,6 hPa 0,0 l/m 4,2 km/h (1 Bft) O 90 4,6 C 11,4 C 11,6 km/h (2 Bft)
18.09.2019 10:22 24,0 C 11,3 C 15,9 C 10,7 C 52 % 64 % 66 % 1026,6 hPa 0,0 l/m 2,9 km/h (1 Bft) N-NW 337 4,7 C 11,3 C 4,6 km/h (1 Bft)
18.09.2019 10:20 24,0 C 11,3 C 15,9 C 10,8 C 52 % 64 % 66 % 1026,6 hPa 0,0 l/m 2,6 km/h (1 Bft) N 360 4,7 C 11,3 C 7,2 km/h (2 Bft)
18.09.2019 10:18 24,0 C 11,1 C 15,7 C 10,8 C 52 % 63 % 67 % 1026,6 hPa 0,0 l/m 1,9 km/h (1 Bft) O-SO 112 4,3 C 11,1 C 12,6 km/h (3 Bft)
18.09.2019 10:16 24,0 C 11,1 C 15,6 C 10,8 C 52 % 63 % 67 % 1026,6 hPa 0,0 l/m 1,9 km/h (1 Bft) O 90 4,3 C 11,1 C 4,3 km/h (1 Bft)
18.09.2019 10:14 23,9 C 11,1 C 15,0 C 10,8 C 52 % 64 % 67 % 1026,6 hPa 0,0 l/m 2,6 km/h (1 Bft) W-SW 247 4,6 C 11,1 C 5,6 km/h (1 Bft)
18.09.2019 10:12 23,9 C 11,0 C 14,6 C 10,6 C 52 % 63 % 67 % 1026,6 hPa 0,0 l/m 3,2 km/h (1 Bft) N-NO 22 4,2 C 11,0 C 2,7 km/h (1 Bft)
18.09.2019 10:10 23,9 C 10,9 C 14,6 C 10,6 C 52 % 64 % 67 % 1026,6 hPa 0,0 l/m 3,5 km/h (1 Bft) S-SO 157 4,4 C 10,9 C 3,1 km/h (1 Bft)
18.09.2019 10:08 23,9 C 10,9 C 14,6 C 10,3 C 52 % 64 % 67 % 1026,6 hPa 0,0 l/m 4,5 km/h (1 Bft) S 180 4,4 C 10,9 C 5,1 km/h (1 Bft)
18.09.2019 10:06 23,9 C 10,8 C 14,5 C 10,2 C 52 % 64 % 67 % 1026,6 hPa 0,0 l/m 4,5 km/h (1 Bft) O-NO 67 4,3 C 10,8 C 11,6 km/h (2 Bft)
18.09.2019 10:04 23,9 C 10,8 C 13,8 C 10,2 C 52 % 64 % 67 % 1026,6 hPa 0,0 l/m 3,7 km/h (1 Bft) NW 315 4,3 C 10,8 C 12,1 km/h (2 Bft)
18.09.2019 10:02 23,9 C 10,8 C 13,8 C 10,1 C 52 % 64 % 67 % 1026,6 hPa 0,0 l/m 3,4 km/h (1 Bft) S 180 4,3 C 10,8 C 13,5 km/h (3 Bft)
18.09.2019 10:00 23,9 C 10,9 C 13,6 C 10,0 C 52 % 64 % 68 % 1026,6 hPa 0,0 l/m 3,2 km/h (1 Bft) NW 315 4,4 C 10,9 C 6,8 km/h (2 Bft)
18.09.2019 09:58 23,8 C 10,9 C 13,6 C 10,0 C 53 % 64 % 67 % 1026,6 hPa 0,0 l/m 3,7 km/h (1 Bft) O-SO 112 4,4 C 10,9 C 9,9 km/h (2 Bft)
18.09.2019 09:56 23,8 C 11,0 C 13,3 C 9,9 C 53 % 65 % 69 % 1026,6 hPa 0,0 l/m 4,5 km/h (1 Bft) W 270 4,7 C 11,0 C 9,4 km/h (2 Bft)
18.09.2019 09:54 23,8 C 11,0 C 13,0 C 9,6 C 53 % 64 % 68 % 1026,6 hPa 0,0 l/m 5,1 km/h (1 Bft) N-NO 22 4,5 C 11,0 C 4,6 km/h (1 Bft)
18.09.2019 09:52 23,8 C 11,0 C 12,9 C 9,5 C 53 % 65 % 69 % 1026,6 hPa 0,0 l/m 6,4 km/h (2 Bft) O-NO 67 4,7 C 11,0 C 4,8 km/h (1 Bft)
18.09.2019 09:50 23,8 C 10,9 C 12,7 C 9,3 C 53 % 65 % 69 % 1026,7 hPa 0,0 l/m 6,9 km/h (2 Bft) NO 45 4,6 C 10,6 C 5,1 km/h (1 Bft)
18.09.2019 09:48 23,8 C 10,9 C 12,5 C 9,2 C 53 % 66 % 69 % 1026,7 hPa 0,0 l/m 7,6 km/h (2 Bft) NO 45 4,8 C 10,1 C 14,7 km/h (3 Bft)
18.09.2019 09:46 23,8 C 10,9 C 12,3 C 9,1 C 53 % 66 % 70 % 1026,7 hPa 0,0 l/m 7,2 km/h (2 Bft) NO 45 4,8 C 10,3 C 19,3 km/h (3 Bft)
18.09.2019 09:44 23,8 C 10,9 C 12,2 C 9,0 C 53 % 66 % 70 % 1026,7 hPa 0,0 l/m 7,1 km/h (2 Bft) O-NO 67 4,8 C 10,4 C 11,6 km/h (2 Bft)
18.09.2019 09:42 23,8 C 10,8 C 12,0 C 8,9 C 53 % 66 % 72 % 1026,7 hPa 0,0 l/m 7,1 km/h (2 Bft) O-NO 67 4,7 C 10,3 C 14,5 km/h (3 Bft)
18.09.2019 09:40 23,7 C 10,6 C 11,8 C 8,9 C 53 % 67 % 72 % 1026,7 hPa 0,0 l/m 6,4 km/h (2 Bft) NO 45 4,7 C 10,6 C 9,9 km/h (2 Bft)
18.09.2019 09:38 23,7 C 10,6 C 11,7 C 8,7 C 53 % 67 % 74 % 1026,7 hPa 0,0 l/m 7,1 km/h (2 Bft) NO 45 4,7 C 10,1 C 12,3 km/h (3 Bft)
18.09.2019 09:36 23,7 C 10,5 C 11,5 C 8,6 C 53 % 67 % 75 % 1026,7 hPa 0,0 l/m 7,2 km/h (2 Bft) O-NO 67 4,6 C 9,9 C 10,9 km/h (2 Bft)
18.09.2019 09:34 23,7 C 10,4 C 11,4 C 8,5 C 53 % 67 % 75 % 1026,7 hPa 0,0 l/m 7,4 km/h (2 Bft) NO 45 4,5 C 9,7 C 17,6 km/h (3 Bft)
18.09.2019 09:32 23,7 C 10,4 C 11,2 C 8,1 C 53 % 67 % 75 % 1026,7 hPa 0,0 l/m 7,1 km/h (2 Bft) NO 45 4,5 C 9,9 C 10,1 km/h (2 Bft)
18.09.2019 09:30 23,7 C 10,3 C 10,8 C 8,1 C 53 % 69 % 75 % 1026,4 hPa 0,0 l/m 8,0 km/h (2 Bft) N-NW 337 4,9 C 9,2 C 10,4 km/h (2 Bft)
18.09.2019 09:28 23,7 C 10,2 C 10,8 C 8,0 C 53 % 69 % 76 % 1026,4 hPa 0,0 l/m 8,2 km/h (2 Bft) O-NO 67 4,8 C 8,9 C 21,0 km/h (4 Bft)
18.09.2019 09:26 23,6 C 10,2 C 10,5 C 7,9 C 53 % 70 % 77 % 1026,4 hPa 0,0 l/m 7,9 km/h (2 Bft) NO 45 5,0 C 9,1 C 12,3 km/h (3 Bft)
18.09.2019 09:24 23,6 C 10,1 C 10,5 C 7,7 C 53 % 71 % 78 % 1026,4 hPa 0,0 l/m 8,7 km/h (2 Bft) O-NO 67 5,1 C 8,5 C 18,8 km/h (3 Bft)
18.09.2019 09:22 23,6 C 10,1 C 10,4 C 7,7 C 53 % 71 % 80 % 1026,4 hPa 0,0 l/m 9,3 km/h (2 Bft) N-NO 22 5,1 C 8,1 C 15,2 km/h (3 Bft)
18.09.2019 09:20 23,6 C 10,0 C 10,3 C 7,5 C 53 % 71 % 82 % 1026,4 hPa 0,0 l/m 10,3 km/h (2 Bft) O-NO 67 5,0 C 7,4 C 15,2 km/h (3 Bft)
18.09.2019 09:18 23,6 C 9,9 C 10,1 C 7,4 C 53 % 72 % 84 % 1026,4 hPa 0,0 l/m 11,6 km/h (2 Bft) N 360 5,1 C 6,6 C 18,6 km/h (3 Bft)
18.09.2019 09:16 23,6 C 9,9 C 10,0 C 7,3 C 53 % 72 % 86 % 1026,4 hPa 0,0 l/m 12,1 km/h (2 Bft) N-NW 337 5,1 C 6,3 C 16,7 km/h (3 Bft)
18.09.2019 09:14 23,6 C 9,8 C 9,9 C 7,1 C 53 % 72 % 88 % 1026,4 hPa 0,0 l/m 12,6 km/h (3 Bft) O-NO 67 5,0 C 6,0 C 20,3 km/h (4 Bft)
18.09.2019 09:12 23,6 C 9,8 C 9,9 C 7,0 C 53 % 73 % 88 % 1026,4 hPa 0,0 l/m 12,1 km/h (2 Bft) S-SO 157 5,2 C 6,2 C 33,6 km/h (5 Bft)
18.09.2019 09:10 23,6 C 9,8 C 9,8 C 6,7 C 53 % 73 % 89 % 1026,4 hPa 0,0 l/m 12,1 km/h (2 Bft) O-SO 112 5,2 C 6,2 C 26,6 km/h (4 Bft)
18.09.2019 09:08 23,6 C 9,7 C 9,8 C 6,6 C 53 % 73 % 89 % 1026,4 hPa 0,0 l/m 10,9 km/h (2 Bft) O-NO 67 5,1 C 6,8 C 20,5 km/h (4 Bft)
18.09.2019 09:06 23,5 C 9,7 C 9,6 C 6,2 C 53 % 73 % 90 % 1026,4 hPa 0,0 l/m 10,1 km/h (2 Bft) NO 45 5,1 C 7,2 C 15,9 km/h (3 Bft)
18.09.2019 09:04 23,5 C 9,5 C 9,4 C 6,0 C 53 % 74 % 90 % 1026,4 hPa 0,0 l/m 9,8 km/h (2 Bft) O-NO 67 5,1 C 7,2 C 19,1 km/h (3 Bft)
18.09.2019 09:02 23,5 C 9,5 C 9,4 C 5,7 C 53 % 74 % 91 % 1026,4 hPa 0,0 l/m 8,2 km/h (2 Bft) O-NO 67 5,1 C 8,2 C 21,7 km/h (4 Bft)
18.09.2019 09:00 23,5 C 9,4 C 9,4 C 5,5 C 53 % 74 % 91 % 1026,4 hPa 0,0 l/m 7,1 km/h (2 Bft) O-NO 67 5,0 C 8,9 C 25,3 km/h (4 Bft)
18.09.2019 08:58 23,5 C 9,3 C 9,1 C 5,0 C 53 % 75 % 91 % 1026,4 hPa 0,0 l/m 6,4 km/h (2 Bft) O-SO 112 5,1 C 9,3 C 15,7 km/h (3 Bft)
18.09.2019 08:56 23,5 C 9,3 C 9,1 C 4,6 C 52 % 75 % 91 % 1026,4 hPa 0,0 l/m 6,0 km/h (2 Bft) S-SW 202 5,1 C 9,3 C 11,1 km/h (2 Bft)
18.09.2019 08:54 23,4 C 9,2 C 9,0 C 4,5 C 52 % 76 % 91 % 1026,4 hPa 0,0 l/m 6,1 km/h (2 Bft) NO 45 5,2 C 9,2 C 20,8 km/h (4 Bft)
18.09.2019 08:52 23,4 C 9,1 C 8,4 C 4,1 C 53 % 76 % 91 % 1026,4 hPa 0,0 l/m 6,0 km/h (2 Bft) N 360 5,1 C 9,1 C 4,8 km/h (1 Bft)
18.09.2019 08:50 23,4 C 9,0 C 8,3 C 4,0 C 53 % 76 % 91 % 1025,9 hPa 0,0 l/m 5,8 km/h (2 Bft) O-NO 67 5,0 C 9,0 C 11,1 km/h (2 Bft)
18.09.2019 08:48 23,4 C 8,9 C 8,2 C 3,9 C 53 % 76 % 91 % 1025,9 hPa 0,0 l/m 6,4 km/h (2 Bft) NO 45 4,9 C 8,9 C 11,3 km/h (2 Bft)
18.09.2019 08:46 23,4 C 8,8 C 8,2 C 3,8 C 53 % 77 % 91 % 1025,9 hPa 0,0 l/m 6,0 km/h (2 Bft) O-NO 67 5,0 C 8,8 C 12,6 km/h (3 Bft)
18.09.2019 08:44 23,4 C 8,4 C 8,2 C 3,6 C 53 % 77 % 91 % 1025,9 hPa 0,0 l/m 5,0 km/h (1 Bft) NO 45 4,6 C 8,4 C 12,8 km/h (3 Bft)
18.09.2019 08:42 23,4 C 8,4 C 8,1 C 3,6 C 53 % 77 % 91 % 1025,9 hPa 0,0 l/m 4,3 km/h (1 Bft) SW 225 4,6 C 8,4 C 5,3 km/h (1 Bft)
18.09.2019 08:40 23,4 C 8,4 C 7,8 C 3,4 C 53 % 77 % 91 % 1025,9 hPa 0,0 l/m 5,0 km/h (1 Bft) N 360 4,6 C 8,4 C 8,4 km/h (2 Bft)
18.09.2019 08:38 23,4 C 8,1 C 7,7 C 3,3 C 53 % 78 % 91 % 1025,9 hPa 0,0 l/m 4,0 km/h (1 Bft) O-NO 67 4,5 C 8,1 C 18,8 km/h (3 Bft)
18.09.2019 08:36 23,4 C 7,9 C 7,8 C 3,2 C 53 % 78 % 91 % 1025,9 hPa 0,0 l/m 3,2 km/h (1 Bft) O-SO 112 4,3 C 7,9 C 3,6 km/h (1 Bft)
18.09.2019 08:34 23,2 C 7,5 C 7,7 C 2,9 C 53 % 78 % 92 % 1025,9 hPa 0,0 l/m 3,4 km/h (1 Bft) N-NW 337 3,9 C 7,5 C 2,4 km/h (1 Bft)
18.09.2019 08:32 23,2 C 7,4 C 7,4 C 2,9 C 53 % 78 % 92 % 1025,9 hPa 0,0 l/m 3,1 km/h (1 Bft) NO 45 3,8 C 7,4 C 9,2 km/h (2 Bft)
18.09.2019 08:30 23,2 C 7,2 C 7,3 C 2,7 C 52 % 78 % 92 % 1025,8 hPa 0,0 l/m 2,3 km/h (1 Bft) O-NO 67 3,6 C 7,2 C 13,0 km/h (3 Bft)
18.09.2019 08:28 23,2 C 7,1 C 7,1 C 2,6 C 52 % 79 % 92 % 1025,8 hPa 0,0 l/m 1,8 km/h (1 Bft) N-NW 337 3,7 C 7,1 C 0,0 km/h (0 Bft)
18.09.2019 08:26 23,3 C 7,0 C 6,7 C 2,5 C 52 % 79 % 92 % 1025,8 hPa 0,0 l/m 1,9 km/h (1 Bft) N-NW 337 3,6 C 7,0 C 8,7 km/h (2 Bft)
18.09.2019 08:24 23,3 C 6,9 C 6,9 C 2,2 C 52 % 80 % 91 % 1025,8 hPa 0,0 l/m 1,4 km/h (1 Bft) N-NW 337 3,7 C 6,9 C 2,9 km/h (1 Bft)
18.09.2019 08:22 23,2 C 6,9 C 6,9 C 2,1 C 53 % 80 % 91 % 1025,8 hPa 0,0 l/m 1,9 km/h (1 Bft) NW 315 3,7 C 6,9 C 0,0 km/h (0 Bft)
18.09.2019 08:20 23,2 C 6,7 C 6,7 C 2,1 C 53 % 81 % 91 % 1025,8 hPa 0,0 l/m 2,4 km/h (1 Bft) NO 45 3,7 C 6,7 C 5,6 km/h (1 Bft)
18.09.2019 08:18 23,2 C 6,6 C 6,3 C 2,0 C 53 % 81 % 91 % 1025,8 hPa 0,0 l/m 2,1 km/h (1 Bft) NW 315 3,6 C 6,6 C 0,0 km/h (0 Bft)
18.09.2019 08:16 23,2 C 6,4 C 6,0 C 2,0 C 53 % 81 % 91 % 1025,8 hPa 0,0 l/m 2,1 km/h (1 Bft) NO 45 3,4 C 6,4 C 10,1 km/h (2 Bft)
18.09.2019 08:14 23,2 C 6,2 C 6,0 C 1,8 C 53 % 82 % 92 % 1025,8 hPa 0,0 l/m 2,1 km/h (1 Bft) O-SO 112 3,4 C 6,2 C 0,0 km/h (0 Bft)
18.09.2019 08:12 23,2 C 6,0 C 5,7 C 1,7 C 53 % 82 % 91 % 1025,8 hPa 0,0 l/m 2,1 km/h (1 Bft) N-NO 22 3,2 C 6,0 C 4,6 km/h (1 Bft)
18.09.2019 08:10 23,2 C 5,8 C 5,6 C 1,5 C 53 % 83 % 91 % 1025,5 hPa 0,0 l/m 1,6 km/h (1 Bft) N 360 3,1 C 5,8 C 6,3 km/h (2 Bft)
18.09.2019 08:08 23,2 C 5,5 C 5,7 C 1,4 C 53 % 83 % 91 % 1025,5 hPa 0,0 l/m 1,1 km/h (1 Bft) O-NO 67 2,8 C 5,5 C 3,4 km/h (1 Bft)
18.09.2019 08:06 23,1 C 5,4 C 5,7 C 1,3 C 53 % 83 % 91 % 1025,5 hPa 0,0 l/m 1,1 km/h (1 Bft) N 360 2,7 C 5,4 C 8,9 km/h (2 Bft)
18.09.2019 08:04 23,2 C 5,3 C 5,6 C 1,2 C 53 % 83 % 91 % 1025,5 hPa 0,0 l/m 0,5 km/h (0 Bft) NW 315 2,7 C 5,3 C 0,0 km/h (0 Bft)
18.09.2019 08:02 23,1 C 5,0 C 5,5 C 1,2 C 53 % 84 % 91 % 1025,5 hPa 0,0 l/m 0,6 km/h (0 Bft) NW 315 2,5 C 5,0 C 2,9 km/h (1 Bft)
18.09.2019 08:00 23,1 C 4,9 C 5,5 C 1,1 C 53 % 84 % 91 % 1025,5 hPa 0,0 l/m 0,8 km/h (0 Bft) W 270 2,4 C 4,9 C 0,0 km/h (0 Bft)
18.09.2019 07:58 23,1 C 4,7 C 5,3 C 1,1 C 53 % 84 % 91 % 1025,5 hPa 0,0 l/m 0,8 km/h (0 Bft) S-SO 157 2,2 C 4,7 C 0,0 km/h (0 Bft)
18.09.2019 07:56 23,1 C 4,5 C 5,0 C 0,9 C 53 % 84 % 91 % 1025,5 hPa 0,0 l/m 1,0 km/h (0 Bft) S-SW 202 2,0 C 4,5 C 0,0 km/h (0 Bft)
18.09.2019 07:54 23,1 C 4,4 C 4,6 C 0,9 C 52 % 84 % 91 % 1025,5 hPa 0,0 l/m 1,1 km/h (1 Bft) W 270 1,9 C 4,4 C 0,0 km/h (0 Bft)
18.09.2019 07:52 23,1 C 4,3 C 4,5 C 0,9 C 52 % 84 % 91 % 1025,5 hPa 0,0 l/m 1,4 km/h (1 Bft) W-NW 292 1,8 C 4,3 C 4,8 km/h (1 Bft)
18.09.2019 07:50 23,1 C 4,2 C 4,6 C 0,9 C 52 % 84 % 91 % 1025,4 hPa 0,0 l/m 1,4 km/h (1 Bft) W 270 1,7 C 4,2 C 2,4 km/h (1 Bft)
18.09.2019 07:48 23,1 C 4,2 C 4,8 C 0,9 C 52 % 84 % 91 % 1025,4 hPa 0,0 l/m 1,6 km/h (1 Bft) W 270 1,7 C 4,2 C 0,0 km/h (0 Bft)
18.09.2019 07:46 23,1 C 4,2 C 5,0 C 0,9 C 52 % 84 % 91 % 1025,4 hPa 0,0 l/m 2,3 km/h (1 Bft) O-SO 112 1,7 C 4,2 C 0,0 km/h (0 Bft)
18.09.2019 07:44 23,1 C 4,2 C 5,0 C 0,9 C 52 % 84 % 91 % 1025,4 hPa 0,0 l/m 2,9 km/h (1 Bft) NO 45 1,7 C 4,2 C 4,6 km/h (1 Bft)
18.09.2019 07:42 23,1 C 4,1 C 5,1 C 0,9 C 52 % 84 % 91 % 1025,4 hPa 0,0 l/m 2,9 km/h (1 Bft) O-NO 67 1,6 C 4,1 C 10,6 km/h (2 Bft)
18.09.2019 07:40 23,1 C 4,1 C 5,1 C 0,9 C 52 % 84 % 91 % 1025,4 hPa 0,0 l/m 2,6 km/h (1 Bft) W 270 1,6 C 4,1 C 5,8 km/h (2 Bft)
18.09.2019 07:38 23,1 C 3,9 C 5,0 C 0,9 C 52 % 84 % 91 % 1025,4 hPa 0,0 l/m 2,3 km/h (1 Bft) O-NO 67 1,4 C 3,9 C 5,8 km/h (2 Bft)
18.09.2019 07:36 23,1 C 3,9 C 5,1 C 0,9 C 52 % 84 % 91 % 1025,4 hPa 0,0 l/m 1,9 km/h (1 Bft) NO 45 1,4 C 3,9 C 8,2 km/h (2 Bft)
18.09.2019 07:34 23,1 C 3,9 C 4,8 C 0,9 C 52 % 84 % 91 % 1025,4 hPa 0,0 l/m 1,0 km/h (0 Bft) SO 135 1,4 C 3,9 C 7,0 km/h (2 Bft)
18.09.2019 07:32 23,1 C 3,9 C 4,4 C 0,9 C 52 % 84 % 91 % 1025,4 hPa 0,0 l/m 0,5 km/h (0 Bft) O-NO 67 1,4 C 3,9 C 3,6 km/h (1 Bft)
18.09.2019 07:30 23,1 C 3,9 C 4,4 C 0,9 C 52 % 84 % 91 % 1025,2 hPa 0,0 l/m 0,3 km/h (0 Bft) N-NW 337 1,4 C 3,9 C 0,0 km/h (0 Bft)
18.09.2019 07:28 23,1 C 4,1 C 4,5 C 0,7 C 52 % 84 % 91 % 1025,2 hPa 0,0 l/m 0,3 km/h (0 Bft) N-NW 337 1,6 C 4,1 C 2,7 km/h (1 Bft)
18.09.2019 07:26 23,1 C 4,1 C 4,4 C 0,7 C 52 % 83 % 91 % 1025,2 hPa 0,0 l/m 0,2 km/h (0 Bft) S-SO 157 1,5 C 4,1 C 0,0 km/h (0 Bft)
18.09.2019 07:24 23,1 C 4,1 C 4,5 C 0,8 C 52 % 83 % 91 % 1025,2 hPa 0,0 l/m 0,2 km/h (0 Bft) O-SO 112 1,5 C 4,1 C 0,0 km/h (0 Bft)
18.09.2019 07:22 23,1 C 4,1 C 4,6 C 0,8 C 52 % 83 % 91 % 1025,2 hPa 0,0 l/m 0,2 km/h (0 Bft) O 90 1,5 C 4,1 C 2,7 km/h (1 Bft)
18.09.2019 07:20 23,2 C 4,1 C 4,8 C 0,8 C 52 % 83 % 91 % 1025,2 hPa 0,0 l/m 0,0 km/h (0 Bft) S-SW 202 1,5 C 4,1 C 0,0 km/h (0 Bft)
18.09.2019 07:18 23,2 C 4,1 C 4,6 C 0,8 C 52 % 83 % 91 % 1025,2 hPa 0,0 l/m 0,0 km/h (0 Bft) O-SO 112 1,5 C 4,1 C 0,0 km/h (0 Bft)
18.09.2019 07:16 23,1 C 4,2 C 4,4 C 0,8 C 52 % 83 % 91 % 1025,2 hPa 0,0 l/m 0,0 km/h (0 Bft) O-NO 67 1,6 C 4,2 C 0,0 km/h (0 Bft)
18.09.2019 07:14 23,2 C 4,2 C 4,3 C 0,9 C 52 % 83 % 91 % 1025,2 hPa 0,0 l/m 0,3 km/h (0 Bft) SO 135 1,6 C 4,2 C 0,0 km/h (0 Bft)
18.09.2019 07:12 23,2 C 4,2 C 4,3 C 0,9 C 52 % 83 % 91 % 1025,2 hPa 0,0 l/m 0,5 km/h (0 Bft) O-NO 67 1,6 C 4,2 C 0,0 km/h (0 Bft)
18.09.2019 07:10 23,2 C 4,2 C 4,4 C 0,9 C 52 % 83 % 91 % 1025,1 hPa 0,0 l/m 0,5 km/h (0 Bft) O-NO 67 1,6 C 4,2 C 2,4 km/h (1 Bft)
18.09.2019 07:08 23,2 C 4,2 C 4,4 C 0,9 C 52 % 83 % 91 % 1025,1 hPa 0,0 l/m 0,5 km/h (0 Bft) NW 315 1,6 C 4,2 C 0,0 km/h (0 Bft)
18.09.2019 07:06 23,2 C 4,2 C 4,5 C 0,9 C 52 % 83 % 91 % 1025,1 hPa 0,0 l/m 0,5 km/h (0 Bft) NO 45 1,6 C 4,2 C 0,0 km/h (0 Bft)
18.09.2019 07:04 23,2 C 4,2 C 4,5 C 1,1 C 52 % 83 % 90 % 1025,1 hPa 0,0 l/m 0,6 km/h (0 Bft) NO 45 1,6 C 4,2 C 3,4 km/h (1 Bft)
18.09.2019 07:02 23,2 C 4,2 C 4,4 C 1,2 C 52 % 83 % 90 % 1025,1 hPa 0,0 l/m 0,5 km/h (0 Bft) N 360 1,6 C 4,2 C 3,4 km/h (1 Bft)
18.09.2019 07:00 23,2 C 4,3 C 4,5 C 1,2 C 52 % 83 % 90 % 1025,1 hPa 0,0 l/m 0,6 km/h (0 Bft) S-SW 202 1,7 C 4,3 C 0,0 km/h (0 Bft)
18.09.2019 06:58 23,2 C 4,3 C 4,6 C 1,2 C 52 % 83 % 90 % 1025,1 hPa 0,0 l/m 0,6 km/h (0 Bft) S-SW 202 1,7 C 4,3 C 0,0 km/h (0 Bft)
18.09.2019 06:56 23,2 C 4,4 C 4,6 C 1,1 C 52 % 83 % 90 % 1025,1 hPa 0,0 l/m 0,6 km/h (0 Bft) SO 135 1,8 C 4,4 C 2,4 km/h (1 Bft)
18.09.2019 06:54 23,2 C 4,4 C 4,3 C 1,3 C 52 % 82 % 90 % 1025,1 hPa 0,0 l/m 0,6 km/h (0 Bft) O-SO 112 1,6 C 4,4 C 3,1 km/h (1 Bft)
18.09.2019 06:52 23,2 C 4,5 C 4,2 C 1,4 C 52 % 82 % 90 % 1025,1 hPa 0,0 l/m 0,8 km/h (0 Bft) NO 45 1,7 C 4,5 C 0,0 km/h (0 Bft)
18.09.2019 06:50 23,2 C 4,7 C 4,2 C 1,4 C 52 % 82 % 90 % 1024,8 hPa 0,0 l/m 0,8 km/h (0 Bft) N 360 1,9 C 4,7 C 3,6 km/h (1 Bft)
18.09.2019 06:48 23,2 C 4,7 C 4,4 C 1,4 C 52 % 82 % 90 % 1024,8 hPa 0,0 l/m 1,0 km/h (0 Bft) N-NO 22 1,9 C 4,7 C 0,0 km/h (0 Bft)
18.09.2019 06:46 23,2 C 4,8 C 4,5 C 1,5 C 52 % 82 % 90 % 1024,8 hPa 0,0 l/m 1,8 km/h (1 Bft) NW 315 2,0 C 4,8 C 0,0 km/h (0 Bft)
18.09.2019 06:44 23,2 C 4,8 C 4,6 C 1,5 C 52 % 82 % 90 % 1024,8 hPa 0,0 l/m 1,8 km/h (1 Bft) S-SW 202 2,0 C 4,8 C 4,3 km/h (1 Bft)
18.09.2019 06:42 23,2 C 4,7 C 4,6 C 1,5 C 52 % 82 % 90 % 1024,8 hPa 0,0 l/m 1,4 km/h (1 Bft) O-NO 67 1,9 C 4,7 C 2,7 km/h (1 Bft)
18.09.2019 06:40 23,2 C 4,9 C 4,8 C 1,6 C 52 % 82 % 90 % 1024,8 hPa 0,0 l/m 1,4 km/h (1 Bft) NW 315 2,1 C 4,9 C 0,0 km/h (0 Bft)
18.09.2019 06:38 23,2 C 5,0 C 4,9 C 1,6 C 52 % 82 % 90 % 1024,8 hPa 0,0 l/m 1,6 km/h (1 Bft) O-NO 67 2,2 C 5,0 C 5,1 km/h (1 Bft)
18.09.2019 06:36 23,2 C 5,1 C 4,9 C 1,6 C 52 % 82 % 90 % 1024,8 hPa 0,0 l/m 1,0 km/h (0 Bft) O 90 2,3 C 5,1 C 6,3 km/h (2 Bft)
18.09.2019 06:34 23,2 C 5,2 C 5,1 C 1,6 C 52 % 82 % 90 % 1024,8 hPa 0,0 l/m 0,3 km/h (0 Bft) NO 45 2,4 C 5,2 C 0,0 km/h (0 Bft)
18.09.2019 06:32 23,2 C 5,3 C 5,2 C 1,6 C 52 % 82 % 90 % 1024,8 hPa 0,0 l/m 0,5 km/h (0 Bft) W-SW 247 2,5 C 5,3 C 0,0 km/h (0 Bft)
18.09.2019 06:30 23,3 C 5,3 C 5,6 C 1,6 C 52 % 81 % 90 % 1024,6 hPa 0,0 l/m 0,5 km/h (0 Bft) N-NW 337 2,3 C 5,3 C 2,7 km/h (1 Bft)
18.09.2019 06:28 23,2 C 5,2 C 5,6 C 1,6 C 52 % 81 % 90 % 1024,6 hPa 0,0 l/m 0,2 km/h (0 Bft) N-NW 337 2,2 C 5,2 C 3,4 km/h (1 Bft)
18.09.2019 06:26 23,3 C 5,2 C 5,4 C 1,5 C 52 % 81 % 90 % 1024,6 hPa 0,0 l/m 0,2 km/h (0 Bft) S-SW 202 2,2 C 5,2 C 0,0 km/h (0 Bft)
18.09.2019 06:24 23,3 C 5,3 C 5,3 C 1,6 C 52 % 81 % 90 % 1024,6 hPa 0,0 l/m 0,2 km/h (0 Bft) W-SW 247 2,3 C 5,3 C 0,0 km/h (0 Bft)
18.09.2019 06:22 23,3 C 5,3 C 5,2 C 1,6 C 52 % 81 % 90 % 1024,6 hPa 0,0 l/m 0,3 km/h (0 Bft) S-SW 202 2,3 C 5,3 C 0,0 km/h (0 Bft)
18.09.2019 06:20 23,3 C 5,4 C 5,0 C 1,6 C 52 % 81 % 90 % 1024,6 hPa 0,0 l/m 0,2 km/h (0 Bft) SO 135 2,4 C 5,4 C 0,0 km/h (0 Bft)
18.09.2019 06:18 23,3 C 5,4 C 5,0 C 1,8 C 52 % 81 % 90 % 1024,6 hPa 0,0 l/m 0,2 km/h (0 Bft) O-NO 67 2,4 C 5,4 C 0,0 km/h (0 Bft)
18.09.2019 06:16 23,2 C 5,5 C 5,0 C 1,8 C 52 % 81 % 90 % 1024,6 hPa 0,0 l/m 0,3 km/h (0 Bft) N 360 2,5 C 5,5 C 0,0 km/h (0 Bft)
18.09.2019 06:14 23,2 C 6,0 C 6,0 C 1,9 C 52 % 79 % 90 % 1024,6 hPa 0,0 l/m 0,6 km/h (0 Bft) SW 225 2,6 C 6,0 C 2,7 km/h (1 Bft)
18.09.2019 06:12 23,2 C 6,0 C 6,0 C 1,9 C 52 % 79 % 90 % 1024,6 hPa 0,0 l/m 0,6 km/h (0 Bft) SW 225 2,6 C 6,0 C 2,7 km/h (1 Bft)
18.09.2019 06:10 23,2 C 6,0 C 6,0 C 1,9 C 52 % 79 % 90 % 1024,3 hPa 0,0 l/m 0,6 km/h (0 Bft) SW 225 2,6 C 6,0 C 2,7 km/h (1 Bft)
18.09.2019 06:08 23,2 C 6,0 C 6,0 C 1,9 C 52 % 79 % 90 % 1024,3 hPa 0,0 l/m 0,6 km/h (0 Bft) SW 225 2,6 C 6,0 C 2,7 km/h (1 Bft)
18.09.2019 06:06 23,2 C 6,0 C 6,0 C 1,9 C 52 % 79 % 90 % 1024,3 hPa 0,0 l/m 0,6 km/h (0 Bft) SW 225 2,6 C 6,0 C 2,7 km/h (1 Bft)
18.09.2019 06:04 23,2 C 6,0 C 6,0 C 1,9 C 52 % 79 % 90 % 1024,3 hPa 0,0 l/m 0,6 km/h (0 Bft) SW 225 2,6 C 6,0 C 2,7 km/h (1 Bft)
18.09.2019 06:02 23,2 C 6,0 C 6,3 C 2,0 C 52 % 79 % 90 % 1024,3 hPa 0,0 l/m 0,6 km/h (0 Bft) S-SW 202 2,6 C 6,0 C 0,0 km/h (0 Bft)
18.09.2019 06:00 23,4 C 6,0 C 6,5 C 2,0 C 52 % 79 % 90 % 1024,3 hPa 0,0 l/m 1,0 km/h (0 Bft) S-SO 157 2,6 C 6,0 C 2,4 km/h (1 Bft)
18.09.2019 05:58 23,4 C 6,1 C 6,3 C 2,2 C 52 % 79 % 90 % 1024,3 hPa 0,0 l/m 0,8 km/h (0 Bft) S 180 2,7 C 6,1 C 0,0 km/h (0 Bft)
18.09.2019 05:56 23,4 C 6,1 C 6,1 C 2,2 C 52 % 79 % 90 % 1024,3 hPa 0,0 l/m 0,8 km/h (0 Bft) S 180 2,7 C 6,1 C 2,4 km/h (1 Bft)
18.09.2019 05:54 23,4 C 6,2 C 5,9 C 2,5 C 52 % 79 % 90 % 1024,3 hPa 0,0 l/m 1,1 km/h (1 Bft) SW 225 2,8 C 6,2 C 0,0 km/h (0 Bft)
18.09.2019 05:52 23,4 C 6,3 C 6,1 C 2,6 C 52 % 79 % 90 % 1024,3 hPa 0,0 l/m 1,3 km/h (1 Bft) S-SW 202 2,9 C 6,3 C 0,0 km/h (0 Bft)
18.09.2019 05:50 23,4 C 6,4 C 6,3 C 2,7 C 52 % 79 % 90 % 1024,3 hPa 0,0 l/m 1,0 km/h (0 Bft) S 180 3,0 C 6,4 C 3,9 km/h (1 Bft)
18.09.2019 05:48 23,4 C 6,5 C 6,2 C 2,8 C 52 % 79 % 90 % 1024,3 hPa 0,0 l/m 1,0 km/h (0 Bft) SW 225 3,1 C 6,5 C 0,0 km/h (0 Bft)
18.09.2019 05:46 23,4 C 6,5 C 6,1 C 2,9 C 52 % 79 % 90 % 1024,3 hPa 0,0 l/m 1,1 km/h (1 Bft) W 270 3,1 C 6,5 C 4,8 km/h (1 Bft)
18.09.2019 05:44 23,4 C 6,6 C 6,3 C 3,0 C 52 % 79 % 89 % 1024,3 hPa 0,0 l/m 1,1 km/h (1 Bft) SW 225 3,2 C 6,6 C 2,4 km/h (1 Bft)
18.09.2019 05:42 23,4 C 6,6 C 6,3 C 3,0 C 52 % 79 % 89 % 1024,3 hPa 0,0 l/m 1,3 km/h (1 Bft) S-SW 202 3,2 C 6,6 C 4,3 km/h (1 Bft)
18.09.2019 05:40 23,4 C 6,7 C 6,5 C 3,2 C 52 % 79 % 89 % 1024,3 hPa 0,0 l/m 1,1 km/h (1 Bft) W-SW 247 3,3 C 6,7 C 0,0 km/h (0 Bft)
18.09.2019 05:38 23,4 C 6,7 C 6,4 C 3,3 C 52 % 79 % 89 % 1024,3 hPa 0,0 l/m 1,0 km/h (0 Bft) NO 45 3,3 C 6,7 C 3,4 km/h (1 Bft)
18.09.2019 05:36 23,4 C 6,6 C 6,3 C 3,4 C 52 % 79 % 89 % 1024,3 hPa 0,0 l/m 1,3 km/h (1 Bft) SW 225 3,2 C 6,6 C 0,0 km/h (0 Bft)
18.09.2019 05:34 23,4 C 6,6 C 6,5 C 3,4 C 52 % 79 % 89 % 1024,3 hPa 0,0 l/m 1,4 km/h (1 Bft) SW 225 3,2 C 6,6 C 4,8 km/h (1 Bft)
18.09.2019 05:32 23,4 C 6,7 C 6,8 C 3,4 C 52 % 79 % 89 % 1024,3 hPa 0,0 l/m 1,8 km/h (1 Bft) SW 225 3,3 C 6,7 C 6,5 km/h (2 Bft)
18.09.2019 05:30 23,4 C 6,7 C 6,8 C 3,5 C 52 % 79 % 89 % 1024,1 hPa 0,0 l/m 2,3 km/h (1 Bft) W 270 3,3 C 6,7 C 0,0 km/h (0 Bft)
18.09.2019 05:28 23,4 C 6,7 C 6,7 C 3,5 C 52 % 79 % 89 % 1024,1 hPa 0,0 l/m 2,7 km/h (1 Bft) SW 225 3,3 C 6,7 C 0,0 km/h (0 Bft)
18.09.2019 05:26 23,4 C 6,7 C 6,9 C 3,5 C 52 % 79 % 89 % 1024,1 hPa 0,0 l/m 3,1 km/h (1 Bft) N-NW 337 3,3 C 6,7 C 8,0 km/h (2 Bft)
18.09.2019 05:24 23,5 C 6,5 C 6,8 C 3,4 C 52 % 79 % 89 % 1024,1 hPa 0,0 l/m 2,9 km/h (1 Bft) O-NO 67 3,1 C 6,5 C 7,0 km/h (2 Bft)
18.09.2019 05:22 23,5 C 6,4 C 6,7 C 3,3 C 52 % 79 % 89 % 1024,1 hPa 0,0 l/m 1,9 km/h (1 Bft) N 360 3,0 C 6,4 C 8,2 km/h (2 Bft)
18.09.2019 05:20 23,4 C 6,4 C 6,8 C 3,3 C 52 % 79 % 89 % 1024,1 hPa 0,0 l/m 1,6 km/h (1 Bft) SW 225 3,0 C 6,4 C 5,1 km/h (1 Bft)
18.09.2019 05:18 23,5 C 6,5 C 6,5 C 3,2 C 52 % 79 % 89 % 1024,1 hPa 0,0 l/m 1,0 km/h (0 Bft) W-SW 247 3,1 C 6,5 C 0,0 km/h (0 Bft)
18.09.2019 05:16 23,5 C 6,5 C 6,8 C 3,2 C 52 % 79 % 89 % 1024,1 hPa 0,0 l/m 1,1 km/h (1 Bft) W 270 3,1 C 6,5 C 6,8 km/h (2 Bft)
18.09.2019 05:14 23,5 C 6,5 C 6,9 C 3,2 C 52 % 79 % 89 % 1024,1 hPa 0,0 l/m 0,8 km/h (0 Bft) SW 225 3,1 C 6,5 C 2,4 km/h (1 Bft)
18.09.2019 05:12 23,5 C 6,6 C 7,0 C 3,2 C 52 % 79 % 89 % 1024,1 hPa 0,0 l/m 1,0 km/h (0 Bft) O 90 3,2 C 6,6 C 2,4 km/h (1 Bft)
18.09.2019 05:10 23,5 C 6,7 C 6,9 C 3,2 C 52 % 79 % 89 % 1024,1 hPa 0,0 l/m 0,8 km/h (0 Bft) O-SO 112 3,3 C 6,7 C 0,0 km/h (0 Bft)
18.09.2019 05:08 23,5 C 6,8 C 7,0 C 3,2 C 52 % 79 % 89 % 1024,1 hPa 0,0 l/m 0,8 km/h (0 Bft) SW 225 3,4 C 6,8 C 0,0 km/h (0 Bft)
18.09.2019 05:06 23,5 C 6,8 C 7,1 C 3,2 C 52 % 79 % 89 % 1024,1 hPa 0,0 l/m 0,6 km/h (0 Bft) S-SW 202 3,4 C 6,8 C 5,6 km/h (1 Bft)
18.09.2019 05:04 23,5 C 6,9 C 6,9 C 3,3 C 52 % 79 % 89 % 1024,1 hPa 0,0 l/m 0,8 km/h (0 Bft) S-SO 157 3,5 C 6,9 C 0,0 km/h (0 Bft)
18.09.2019 05:02 23,5 C 6,9 C 7,0 C 3,3 C 52 % 79 % 89 % 1024,1 hPa 0,0 l/m 1,0 km/h (0 Bft) S-SW 202 3,5 C 6,9 C 2,9 km/h (1 Bft)
18.09.2019 05:00 23,5 C 6,9 C 7,0 C 3,4 C 52 % 79 % 89 % 1024,1 hPa 0,0 l/m 0,8 km/h (0 Bft) S-SW 202 3,5 C 6,9 C 0,0 km/h (0 Bft)
18.09.2019 04:58 23,5 C 6,9 C 7,1 C 3,4 C 52 % 79 % 89 % 1024,1 hPa 0,0 l/m 0,8 km/h (0 Bft) W-SW 247 3,5 C 6,9 C 2,9 km/h (1 Bft)
18.09.2019 04:56 23,5 C 6,9 C 6,8 C 3,5 C 52 % 79 % 89 % 1024,1 hPa 0,0 l/m 1,0 km/h (0 Bft) S-SO 157 3,5 C 6,9 C 0,0 km/h (0 Bft)
18.09.2019 04:54 23,5 C 7,0 C 6,7 C 3,6 C 52 % 78 % 89 % 1024,1 hPa 0,0 l/m 1,0 km/h (0 Bft) W-SW 247 3,4 C 7,0 C 4,3 km/h (1 Bft)
18.09.2019 04:52 23,5 C 7,0 C 6,5 C 3,6 C 52 % 78 % 89 % 1024,1 hPa 0,0 l/m 1,0 km/h (0 Bft) W-SW 247 3,4 C 7,0 C 0,0 km/h (0 Bft)
18.09.2019 04:50 23,6 C 7,1 C 7,0 C 3,6 C 52 % 78 % 89 % 1023,8 hPa 0,0 l/m 1,0 km/h (0 Bft) W-SW 247 3,5 C 7,1 C 0,0 km/h (0 Bft)
18.09.2019 04:48 23,6 C 7,2 C 7,1 C 3,6 C 52 % 78 % 89 % 1023,8 hPa 0,0 l/m 1,1 km/h (1 Bft) S-SO 157 3,6 C 7,2 C 0,0 km/h (0 Bft)
18.09.2019 04:46 23,6 C 7,2 C 7,0 C 3,8 C 52 % 78 % 89 % 1023,8 hPa 0,0 l/m 1,4 km/h (1 Bft) SO 135 3,6 C 7,2 C 0,0 km/h (0 Bft)
18.09.2019 04:44 23,6 C 7,3 C 7,1 C 3,9 C 52 % 78 % 89 % 1023,8 hPa 0,0 l/m 1,6 km/h (1 Bft) S-SW 202 3,7 C 7,3 C 0,0 km/h (0 Bft)
18.09.2019 04:42 23,6 C 7,3 C 7,2 C 3,9 C 52 % 79 % 89 % 1023,8 hPa 0,0 l/m 1,8 km/h (1 Bft) S-SW 202 3,9 C 7,3 C 2,7 km/h (1 Bft)
18.09.2019 04:40 23,6 C 7,3 C 7,2 C 4,0 C 52 % 79 % 89 % 1023,8 hPa 0,0 l/m 1,9 km/h (1 Bft) S-SO 157 3,9 C 7,3 C 4,1 km/h (1 Bft)
18.09.2019 04:38 23,6 C 7,4 C 7,3 C 4,0 C 52 % 79 % 89 % 1023,8 hPa 0,0 l/m 1,9 km/h (1 Bft) S-SW 202 4,0 C 7,4 C 3,9 km/h (1 Bft)
18.09.2019 04:36 23,6 C 7,4 C 7,2 C 4,1 C 52 % 78 % 89 % 1023,8 hPa 0,0 l/m 1,8 km/h (1 Bft) S 180 3,8 C 7,4 C 3,9 km/h (1 Bft)
18.09.2019 04:34 23,6 C 7,4 C 6,8 C 4,2 C 52 % 78 % 89 % 1023,8 hPa 0,0 l/m 1,4 km/h (1 Bft) S-SO 157 3,8 C 7,4 C 3,4 km/h (1 Bft)
18.09.2019 04:32 23,6 C 7,6 C 6,8 C 4,3 C 52 % 79 % 89 % 1023,8 hPa 0,0 l/m 1,3 km/h (1 Bft) S-SO 157 4,2 C 7,6 C 6,3 km/h (2 Bft)
18.09.2019 04:30 23,6 C 7,7 C 7,1 C 4,5 C 52 % 79 % 89 % 1023,4 hPa 0,0 l/m 1,0 km/h (0 Bft) SW 225 4,3 C 7,7 C 3,9 km/h (1 Bft)
18.09.2019 04:28 23,6 C 7,7 C 7,1 C 4,5 C 52 % 79 % 89 % 1023,4 hPa 0,0 l/m 0,8 km/h (0 Bft) SO 135 4,3 C 7,7 C 2,9 km/h (1 Bft)
18.09.2019 04:26 23,6 C 7,7 C 7,1 C 4,6 C 52 % 79 % 89 % 1023,4 hPa 0,0 l/m 0,8 km/h (0 Bft) S 180 4,3 C 7,7 C 3,4 km/h (1 Bft)
18.09.2019 04:24 23,6 C 7,8 C 7,3 C 4,6 C 52 % 79 % 89 % 1023,4 hPa 0,0 l/m 0,6 km/h (0 Bft) W-SW 247 4,4 C 7,8 C 0,0 km/h (0 Bft)
18.09.2019 04:22 23,6 C 7,9 C 7,4 C 4,7 C 52 % 79 % 89 % 1023,4 hPa 0,0 l/m 1,1 km/h (1 Bft) SO 135 4,5 C 7,9 C 2,7 km/h (1 Bft)
18.09.2019 04:20 23,6 C 7,9 C 7,4 C 4,8 C 52 % 79 % 89 % 1023,4 hPa 0,0 l/m 1,0 km/h (0 Bft) S-SW 202 4,5 C 7,9 C 3,4 km/h (1 Bft)
18.09.2019 04:18 23,6 C 8,1 C 7,4 C 4,9 C 52 % 79 % 89 % 1023,4 hPa 0,0 l/m 1,1 km/h (1 Bft) SO 135 4,7 C 8,1 C 0,0 km/h (0 Bft)
18.09.2019 04:16 23,6 C 8,2 C 7,5 C 4,9 C 52 % 79 % 89 % 1023,4 hPa 0,0 l/m 1,1 km/h (1 Bft) SW 225 4,8 C 8,2 C 2,7 km/h (1 Bft)
18.09.2019 04:14 23,6 C 8,2 C 7,7 C 5,0 C 52 % 79 % 89 % 1023,4 hPa 0,0 l/m 1,1 km/h (1 Bft) NW 315 4,8 C 8,2 C 3,9 km/h (1 Bft)
18.09.2019 04:12 23,6 C 8,3 C 7,7 C 5,1 C 52 % 79 % 89 % 1023,4 hPa 0,0 l/m 1,4 km/h (1 Bft) S-SW 202 4,9 C 8,3 C 4,1 km/h (1 Bft)
18.09.2019 04:10 23,7 C 8,3 C 7,6 C 5,3 C 52 % 79 % 89 % 1023,5 hPa 0,0 l/m 1,8 km/h (1 Bft) S 180 4,9 C 8,3 C 3,6 km/h (1 Bft)
18.09.2019 04:08 23,6 C 8,4 C 7,6 C 5,3 C 52 % 79 % 89 % 1023,5 hPa 0,0 l/m 1,9 km/h (1 Bft) SW 225 5,0 C 8,4 C 0,0 km/h (0 Bft)
18.09.2019 04:06 23,6 C 8,4 C 7,6 C 5,3 C 52 % 80 % 89 % 1023,5 hPa 0,0 l/m 1,9 km/h (1 Bft) NO 45 5,2 C 8,4 C 0,0 km/h (0 Bft)
18.09.2019 04:04 23,7 C 8,4 C 7,4 C 5,3 C 52 % 80 % 89 % 1023,5 hPa 0,0 l/m 2,1 km/h (1 Bft) N-NW 337 5,2 C 8,4 C 0,0 km/h (0 Bft)
18.09.2019 04:02 23,7 C 8,5 C 7,6 C 5,3 C 52 % 80 % 89 % 1023,5 hPa 0,0 l/m 2,4 km/h (1 Bft) W 270 5,3 C 8,5 C 9,2 km/h (2 Bft)
18.09.2019 04:00 23,7 C 8,5 C 7,8 C 5,1 C 53 % 80 % 89 % 1023,5 hPa 0,0 l/m 2,7 km/h (1 Bft) NW 315 5,3 C 8,5 C 6,0 km/h (2 Bft)
18.09.2019 03:58 23,7 C 8,6 C 8,0 C 5,1 C 53 % 81 % 89 % 1023,5 hPa 0,0 l/m 2,6 km/h (1 Bft) N-NO 22 5,5 C 8,6 C 6,5 km/h (2 Bft)
18.09.2019 03:56 23,7 C 8,6 C 8,0 C 5,1 C 53 % 81 % 89 % 1023,5 hPa 0,0 l/m 2,4 km/h (1 Bft) W-SW 247 5,5 C 8,6 C 4,1 km/h (1 Bft)
18.09.2019 03:54 23,7 C 8,6 C 8,1 C 5,1 C 53 % 81 % 89 % 1023,5 hPa 0,0 l/m 3,1 km/h (1 Bft) W-NW 292 5,5 C 8,6 C 3,4 km/h (1 Bft)
18.09.2019 03:52 23,7 C 8,6 C 8,0 C 5,0 C 53 % 81 % 89 % 1023,5 hPa 0,0 l/m 3,5 km/h (1 Bft) W 270 5,5 C 8,6 C 6,3 km/h (2 Bft)
18.09.2019 03:50 23,7 C 8,6 C 8,0 C 5,0 C 53 % 82 % 88 % 1023,2 hPa 0,0 l/m 3,5 km/h (1 Bft) W-NW 292 5,7 C 8,6 C 10,4 km/h (2 Bft)
18.09.2019 03:48 23,7 C 8,5 C 8,0 C 5,0 C 53 % 82 % 88 % 1023,2 hPa 0,0 l/m 3,5 km/h (1 Bft) W 270 5,6 C 8,5 C 6,5 km/h (2 Bft)
18.09.2019 03:46 23,7 C 8,5 C 7,8 C 5,0 C 53 % 82 % 88 % 1023,2 hPa 0,0 l/m 4,0 km/h (1 Bft) SO 135 5,6 C 8,5 C 0,0 km/h (0 Bft)
18.09.2019 03:44 23,7 C 8,4 C 7,8 C 4,9 C 53 % 82 % 88 % 1023,2 hPa 0,0 l/m 4,2 km/h (1 Bft) O-NO 67 5,5 C 8,4 C 13,5 km/h (3 Bft)
18.09.2019 03:42 23,7 C 8,4 C 7,8 C 4,9 C 53 % 83 % 88 % 1023,2 hPa 0,0 l/m 3,9 km/h (1 Bft) SW 225 5,7 C 8,4 C 7,7 km/h (2 Bft)
18.09.2019 03:40 23,7 C 8,4 C 7,8 C 4,9 C 53 % 83 % 88 % 1023,2 hPa 0,0 l/m 3,4 km/h (1 Bft) N-NW 337 5,7 C 8,4 C 4,6 km/h (1 Bft)
18.09.2019 03:38 23,7 C 8,3 C 8,0 C 5,0 C 53 % 83 % 88 % 1023,2 hPa 0,0 l/m 2,9 km/h (1 Bft) N 360 5,6 C 8,3 C 12,1 km/h (2 Bft)
18.09.2019 03:36 23,8 C 8,3 C 8,1 C 5,1 C 53 % 83 % 88 % 1023,2 hPa 0,0 l/m 2,4 km/h (1 Bft) NO 45 5,6 C 8,3 C 4,1 km/h (1 Bft)
18.09.2019 03:34 23,8 C 8,1 C 8,1 C 5,3 C 53 % 83 % 88 % 1023,2 hPa 0,0 l/m 2,1 km/h (1 Bft) NW 315 5,4 C 8,1 C 7,0 km/h (2 Bft)
18.09.2019 03:32 23,8 C 8,0 C 8,1 C 5,3 C 53 % 83 % 88 % 1023,2 hPa 0,0 l/m 1,4 km/h (1 Bft) NW 315 5,3 C 8,0 C 3,9 km/h (1 Bft)
18.09.2019 03:30 23,8 C 7,9 C 8,2 C 5,4 C 53 % 83 % 88 % 1023,1 hPa 0,0 l/m 1,0 km/h (0 Bft) NO 45 5,2 C 7,9 C 6,8 km/h (2 Bft)
18.09.2019 03:28 23,8 C 7,9 C 8,2 C 5,4 C 53 % 83 % 88 % 1023,1 hPa 0,0 l/m 1,3 km/h (1 Bft) W-SW 247 5,2 C 7,9 C 3,1 km/h (1 Bft)
18.09.2019 03:26 23,8 C 8,0 C 8,0 C 5,5 C 53 % 83 % 88 % 1023,1 hPa 0,0 l/m 1,3 km/h (1 Bft) N-NO 22 5,3 C 8,0 C 4,3 km/h (1 Bft)
18.09.2019 03:24 23,8 C 8,0 C 8,1 C 5,4 C 53 % 83 % 88 % 1023,1 hPa 0,0 l/m 1,3 km/h (1 Bft) O-SO 112 5,3 C 8,0 C 2,7 km/h (1 Bft)
18.09.2019 03:22 23,8 C 8,0 C 8,1 C 5,4 C 53 % 83 % 87 % 1023,1 hPa 0,0 l/m 1,1 km/h (1 Bft) N-NW 337 5,3 C 8,0 C 0,0 km/h (0 Bft)
18.09.2019 03:20 23,8 C 7,9 C 8,3 C 5,4 C 53 % 83 % 87 % 1023,1 hPa 0,0 l/m 1,1 km/h (1 Bft) W-NW 292 5,2 C 7,9 C 0,0 km/h (0 Bft)
18.09.2019 03:18 23,8 C 8,0 C 8,3 C 5,4 C 53 % 83 % 87 % 1023,1 hPa 0,0 l/m 1,0 km/h (0 Bft) N-NW 337 5,3 C 8,0 C 8,2 km/h (2 Bft)
18.09.2019 03:16 23,8 C 8,0 C 8,2 C 5,5 C 53 % 83 % 87 % 1023,1 hPa 0,0 l/m 0,8 km/h (0 Bft) O-NO 67 5,3 C 8,0 C 3,1 km/h (1 Bft)
18.09.2019 03:14 23,8 C 8,5 C 8,2 C 6,0 C 53 % 83 % 87 % 1023,1 hPa 0,0 l/m 0,3 km/h (0 Bft) SW 225 5,8 C 8,5 C 0,0 km/h (0 Bft)
18.09.2019 03:12 23,8 C 8,5 C 8,2 C 6,0 C 53 % 83 % 87 % 1023,1 hPa 0,0 l/m 0,3 km/h (0 Bft) SW 225 5,8 C 8,5 C 0,0 km/h (0 Bft)
18.09.2019 03:10 23,8 C 8,5 C 8,2 C 6,0 C 53 % 83 % 87 % 1023,1 hPa 0,0 l/m 0,3 km/h (0 Bft) SW 225 5,8 C 8,5 C 0,0 km/h (0 Bft)
18.09.2019 03:08 23,9 C 8,5 C 8,2 C 6,0 C 53 % 83 % 87 % 1023,1 hPa 0,0 l/m 0,3 km/h (0 Bft) SW 225 5,8 C 8,5 C 0,0 km/h (0 Bft)
18.09.2019 03:06 23,8 C 8,5 C 8,2 C 6,0 C 53 % 83 % 87 % 1023,1 hPa 0,0 l/m 0,3 km/h (0 Bft) SW 225 5,8 C 8,5 C 0,0 km/h (0 Bft)
18.09.2019 03:04 23,9 C 8,5 C 8,2 C 6,0 C 53 % 83 % 87 % 1023,1 hPa 0,0 l/m 0,3 km/h (0 Bft) SW 225 5,8 C 8,5 C 0,0 km/h (0 Bft)
18.09.2019 03:02 23,9 C 8,6 C 8,2 C 6,1 C 53 % 83 % 87 % 1023,1 hPa 0,0 l/m 0,3 km/h (0 Bft) SO 135 5,9 C 8,6 C 0,0 km/h (0 Bft)
18.09.2019 03:00 23,9 C 8,6 C 8,1 C 6,2 C 53 % 83 % 87 % 1023,1 hPa 0,0 l/m 0,2 km/h (0 Bft) NO 45 5,9 C 8,6 C 3,9 km/h (1 Bft)
18.09.2019 02:58 23,9 C 8,7 C 8,3 C 6,2 C 53 % 83 % 87 % 1023,1 hPa 0,0 l/m 0,0 km/h (0 Bft) N-NW 337 6,0 C 8,7 C 0,0 km/h (0 Bft)
18.09.2019 02:56 23,9 C 8,8 C 8,4 C 6,3 C 53 % 83 % 87 % 1023,1 hPa 0,0 l/m 0,0 km/h (0 Bft) W-SW 247 6,1 C 8,8 C 0,0 km/h (0 Bft)
18.09.2019 02:54 23,9 C 8,9 C 8,5 C 6,4 C 53 % 83 % 87 % 1023,1 hPa 0,0 l/m 0,0 km/h (0 Bft) S-SO 157 6,2 C 8,9 C 0,0 km/h (0 Bft)
18.09.2019 02:52 23,9 C 9,0 C 8,6 C 6,5 C 53 % 83 % 87 % 1023,1 hPa 0,0 l/m 0,0 km/h (0 Bft) W-SW 247 6,3 C 9,0 C 0,0 km/h (0 Bft)
18.09.2019 02:50 23,9 C 9,1 C 8,7 C 6,8 C 53 % 83 % 87 % 1022,9 hPa 0,0 l/m 0,2 km/h (0 Bft) S 180 6,4 C 9,1 C 0,0 km/h (0 Bft)
18.09.2019 02:48 23,9 C 9,1 C 8,6 C 6,8 C 53 % 83 % 87 % 1022,9 hPa 0,0 l/m 0,6 km/h (0 Bft) S-SO 157 6,4 C 9,1 C 0,0 km/h (0 Bft)
18.09.2019 02:46 23,9 C 9,4 C 8,7 C 7,0 C 53 % 83 % 87 % 1022,9 hPa 0,0 l/m 1,0 km/h (0 Bft) S-SW 202 6,7 C 9,4 C 0,0 km/h (0 Bft)
18.09.2019 02:44 23,9 C 9,4 C 8,8 C 7,1 C 53 % 83 % 87 % 1022,9 hPa 0,0 l/m 1,4 km/h (1 Bft) W 270 6,7 C 9,4 C 0,0 km/h (0 Bft)
18.09.2019 02:42 23,9 C 9,5 C 9,0 C 7,2 C 53 % 84 % 87 % 1022,9 hPa 0,0 l/m 1,6 km/h (1 Bft) W-SW 247 6,9 C 9,5 C 0,0 km/h (0 Bft)
18.09.2019 02:40 23,9 C 9,5 C 8,8 C 7,4 C 53 % 84 % 87 % 1022,9 hPa 0,0 l/m 1,8 km/h (1 Bft) O-NO 67 6,9 C 9,5 C 5,1 km/h (1 Bft)
18.09.2019 02:38 23,9 C 9,5 C 9,3 C 7,5 C 53 % 84 % 87 % 1022,9 hPa 0,0 l/m 2,1 km/h (1 Bft) W-NW 292 6,9 C 9,5 C 2,7 km/h (1 Bft)
18.09.2019 02:36 24,0 C 9,4 C 9,6 C 7,4 C 54 % 84 % 87 % 1022,9 hPa 0,0 l/m 2,6 km/h (1 Bft) NW 315 6,8 C 9,4 C 4,1 km/h (1 Bft)
18.09.2019 02:34 23,9 C 9,4 C 9,8 C 7,1 C 53 % 84 % 86 % 1022,9 hPa 0,0 l/m 3,5 km/h (1 Bft) W 270 6,8 C 9,4 C 3,9 km/h (1 Bft)
18.09.2019 02:32 23,9 C 9,4 C 9,7 C 7,0 C 53 % 84 % 86 % 1022,9 hPa 0,0 l/m 4,2 km/h (1 Bft) SO 135 6,8 C 9,4 C 0,0 km/h (0 Bft)
18.09.2019 02:30 24,0 C 9,3 C 9,9 C 6,9 C 54 % 84 % 86 % 1022,8 hPa 0,0 l/m 5,3 km/h (1 Bft) NO 45 6,7 C 9,3 C 3,9 km/h (1 Bft)
18.09.2019 02:28 24,0 C 9,3 C 9,9 C 6,8 C 54 % 84 % 86 % 1022,8 hPa 0,0 l/m 5,3 km/h (1 Bft) W-SW 247 6,7 C 9,3 C 11,8 km/h (2 Bft)
18.09.2019 02:26 24,0 C 9,1 C 10,0 C 6,8 C 54 % 84 % 86 % 1022,8 hPa 0,0 l/m 5,0 km/h (1 Bft) N-NO 22 6,5 C 9,1 C 11,6 km/h (2 Bft)
18.09.2019 02:24 24,0 C 9,0 C 10,0 C 7,0 C 54 % 84 % 86 % 1022,8 hPa 0,0 l/m 4,7 km/h (1 Bft) N-NO 22 6,4 C 9,0 C 18,8 km/h (3 Bft)
18.09.2019 02:22 24,0 C 9,0 C 9,9 C 7,1 C 54 % 84 % 86 % 1022,8 hPa 0,0 l/m 3,7 km/h (1 Bft) NO 45 6,4 C 9,0 C 11,1 km/h (2 Bft)
18.09.2019 02:20 24,0 C 9,1 C 9,8 C 7,2 C 54 % 84 % 86 % 1022,8 hPa 0,0 l/m 3,2 km/h (1 Bft) W 270 6,5 C 9,1 C 10,9 km/h (2 Bft)
18.09.2019 02:18 24,0 C 9,3 C 9,9 C 7,3 C 54 % 84 % 86 % 1022,8 hPa 0,0 l/m 3,1 km/h (1 Bft) O 90 6,7 C 9,3 C 3,9 km/h (1 Bft)
18.09.2019 02:16 24,0 C 9,3 C 9,9 C 7,5 C 54 % 84 % 86 % 1022,8 hPa 0,0 l/m 3,1 km/h (1 Bft) NO 45 6,7 C 9,3 C 6,5 km/h (2 Bft)
18.09.2019 02:14 24,0 C 9,4 C 9,9 C 7,6 C 54 % 84 % 86 % 1022,8 hPa 0,0 l/m 3,1 km/h (1 Bft) SW 225 6,8 C 9,4 C 7,2 km/h (2 Bft)
18.09.2019 02:12 24,0 C 9,5 C 10,0 C 7,8 C 54 % 84 % 86 % 1022,8 hPa 0,0 l/m 3,1 km/h (1 Bft) W 270 6,9 C 9,5 C 2,9 km/h (1 Bft)
18.09.2019 02:10 24,0 C 9,7 C 9,9 C 7,9 C 54 % 84 % 86 % 1022,6 hPa 0,0 l/m 3,1 km/h (1 Bft) W 270 7,1 C 9,7 C 7,2 km/h (2 Bft)
18.09.2019 02:08 24,0 C 9,8 C 10,0 C 8,1 C 54 % 83 % 86 % 1022,6 hPa 0,0 l/m 2,7 km/h (1 Bft) W 270 7,1 C 9,8 C 5,1 km/h (1 Bft)
18.09.2019 02:06 24,0 C 9,9 C 10,4 C 8,6 C 54 % 83 % 86 % 1022,6 hPa 0,0 l/m 3,4 km/h (1 Bft) W 270 7,2 C 9,9 C 3,6 km/h (1 Bft)
18.09.2019 02:04 24,0 C 9,9 C 10,4 C 8,7 C 54 % 83 % 86 % 1022,6 hPa 0,0 l/m 3,9 km/h (1 Bft) NW 315 7,2 C 9,9 C 8,9 km/h (2 Bft)
18.09.2019 02:02 24,0 C 10,1 C 10,4 C 8,9 C 54 % 83 % 86 % 1022,6 hPa 0,0 l/m 3,9 km/h (1 Bft) N 360 7,3 C 10,1 C 4,6 km/h (1 Bft)
18.09.2019 02:00 24,0 C 10,2 C 10,7 C 9,1 C 54 % 83 % 86 % 1022,6 hPa 0,0 l/m 4,7 km/h (1 Bft) N 360 7,4 C 10,2 C 3,9 km/h (1 Bft)
18.09.2019 01:58 24,0 C 10,3 C 10,7 C 9,5 C 54 % 83 % 86 % 1022,6 hPa 0,0 l/m 5,8 km/h (2 Bft) O-NO 67 7,5 C 10,3 C 4,8 km/h (1 Bft)
18.09.2019 01:56 24,0 C 10,3 C 10,7 C 9,4 C 54 % 83 % 86 % 1022,6 hPa 0,0 l/m 7,1 km/h (2 Bft) O-NO 67 7,5 C 9,8 C 8,9 km/h (2 Bft)
18.09.2019 01:54 24,0 C 10,4 C 10,4 C 9,5 C 54 % 83 % 86 % 1022,6 hPa 0,0 l/m 8,2 km/h (2 Bft) W 270 7,6 C 9,1 C 11,8 km/h (2 Bft)
18.09.2019 01:52 24,0 C 10,4 C 10,5 C 9,3 C 54 % 83 % 86 % 1022,6 hPa 0,0 l/m 9,0 km/h (2 Bft) O-NO 67 7,6 C 8,6 C 6,3 km/h (2 Bft)
18.09.2019 01:50 24,0 C 10,4 C 10,5 C 9,3 C 54 % 83 % 86 % 1022,9 hPa 0,0 l/m 10,5 km/h (2 Bft) W-NW 292 7,6 C 7,8 C 14,7 km/h (3 Bft)
18.09.2019 01:48 24,0 C 10,4 C 10,5 C 9,3 C 54 % 83 % 86 % 1022,9 hPa 0,0 l/m 10,8 km/h (2 Bft) W-NW 292 7,6 C 7,6 C 15,7 km/h (3 Bft)
18.09.2019 01:46 24,0 C 10,4 C 10,5 C 9,3 C 54 % 83 % 86 % 1022,9 hPa 0,0 l/m 11,3 km/h (2 Bft) NW 315 7,6 C 7,3 C 22,4 km/h (4 Bft)
18.09.2019 01:44 24,0 C 10,4 C 10,5 C 9,3 C 54 % 83 % 85 % 1022,9 hPa 0,0 l/m 10,8 km/h (2 Bft) W-SW 247 7,6 C 7,6 C 16,2 km/h (3 Bft)
18.09.2019 01:42 24,0 C 10,4 C 10,5 C 9,4 C 54 % 83 % 85 % 1022,9 hPa 0,0 l/m 11,1 km/h (2 Bft) W-NW 292 7,6 C 7,4 C 15,4 km/h (3 Bft)
18.09.2019 01:40 24,0 C 10,4 C 10,3 C 9,4 C 54 % 83 % 85 % 1022,9 hPa 0,0 l/m 11,1 km/h (2 Bft) W-NW 292 7,6 C 7,4 C 20,8 km/h (4 Bft)
18.09.2019 01:38 24,0 C 10,4 C 10,5 C 9,5 C 54 % 83 % 85 % 1022,9 hPa 0,0 l/m 10,8 km/h (2 Bft) W 270 7,6 C 7,6 C 14,0 km/h (3 Bft)
18.09.2019 01:36 24,0 C 10,6 C 10,8 C 9,6 C 54 % 83 % 85 % 1022,9 hPa 0,0 l/m 11,3 km/h (2 Bft) W 270 7,8 C 7,6 C 20,0 km/h (4 Bft)
18.09.2019 01:34 24,0 C 10,6 C 10,7 C 9,7 C 54 % 83 % 85 % 1022,9 hPa 0,0 l/m 11,9 km/h (2 Bft) W-NW 292 7,8 C 7,3 C 14,5 km/h (3 Bft)
18.09.2019 01:32 24,0 C 10,7 C 10,8 C 9,6 C 54 % 83 % 85 % 1022,9 hPa 0,0 l/m 11,6 km/h (2 Bft) W-NW 292 7,9 C 7,5 C 22,4 km/h (4 Bft)
18.09.2019 01:30 24,0 C 10,7 C 10,8 C 9,9 C 54 % 83 % 85 % 1022,5 hPa 0,0 l/m 11,1 km/h (2 Bft) W 270 7,9 C 7,8 C 25,1 km/h (4 Bft)
18.09.2019 01:28 24,1 C 10,7 C 10,7 C 9,9 C 54 % 83 % 85 % 1022,5 hPa 0,0 l/m 11,1 km/h (2 Bft) W-NW 292 7,9 C 7,8 C 22,2 km/h (4 Bft)
18.09.2019 01:26 24,1 C 10,7 C 10,8 C 10,0 C 54 % 83 % 85 % 1022,5 hPa 0,0 l/m 10,9 km/h (2 Bft) W-NW 292 7,9 C 7,9 C 25,1 km/h (4 Bft)
18.09.2019 01:24 24,0 C 10,8 C 10,8 C 10,1 C 54 % 83 % 85 % 1022,5 hPa 0,0 l/m 11,1 km/h (2 Bft) NW 315 8,0 C 7,9 C 23,9 km/h (4 Bft)
18.09.2019 01:22 24,0 C 10,8 C 10,7 C 10,1 C 54 % 83 % 85 % 1022,5 hPa 0,0 l/m 10,8 km/h (2 Bft) N-NO 22 8,0 C 8,0 C 20,8 km/h (4 Bft)
18.09.2019 01:20 24,1 C 10,9 C 10,8 C 10,1 C 54 % 83 % 85 % 1022,5 hPa 0,0 l/m 11,9 km/h (2 Bft) N-NO 22 8,1 C 7,6 C 15,7 km/h (3 Bft)
18.09.2019 01:18 24,1 C 10,9 C 10,8 C 10,1 C 54 % 83 % 85 % 1022,5 hPa 0,0 l/m 12,4 km/h (3 Bft) W-NW 292 8,1 C 7,4 C 17,1 km/h (3 Bft)
18.09.2019 01:16 24,1 C 10,9 C 10,8 C 10,1 C 54 % 83 % 85 % 1022,5 hPa 0,0 l/m 12,9 km/h (3 Bft) W-NW 292 8,1 C 7,1 C 20,8 km/h (4 Bft)
18.09.2019 01:14 24,1 C 10,9 C 10,8 C 10,1 C 54 % 83 % 85 % 1022,5 hPa 0,0 l/m 12,7 km/h (3 Bft) NW 315 8,1 C 7,2 C 20,0 km/h (4 Bft)
18.09.2019 01:12 24,1 C 10,9 C 10,8 C 10,2 C 54 % 83 % 85 % 1022,5 hPa 0,0 l/m 12,9 km/h (3 Bft) N 360 8,1 C 7,1 C 15,0 km/h (3 Bft)
18.09.2019 01:10 24,1 C 10,8 C 10,8 C 10,2 C 54 % 82 % 85 % 1022,5 hPa 0,0 l/m 12,7 km/h (3 Bft) W-NW 292 7,9 C 7,1 C 24,6 km/h (4 Bft)
18.09.2019 01:08 24,1 C 10,8 C 10,8 C 10,3 C 54 % 82 % 85 % 1022,5 hPa 0,0 l/m 11,9 km/h (2 Bft) NW 315 7,9 C 7,5 C 16,9 km/h (3 Bft)
18.09.2019 01:06 24,1 C 10,9 C 10,9 C 10,3 C 54 % 82 % 85 % 1022,5 hPa 0,0 l/m 11,6 km/h (2 Bft) NW 315 7,9 C 7,7 C 27,3 km/h (4 Bft)
18.09.2019 01:04 24,1 C 10,9 C 10,9 C 10,3 C 54 % 82 % 85 % 1022,5 hPa 0,0 l/m 10,8 km/h (2 Bft) W-NW 292 7,9 C 8,2 C 20,0 km/h (4 Bft)
18.09.2019 01:02 24,1 C 10,9 C 10,8 C 10,2 C 54 % 82 % 85 % 1022,5 hPa 0,0 l/m 10,9 km/h (2 Bft) NW 315 7,9 C 8,1 C 29,2 km/h (5 Bft)
18.09.2019 01:00 24,1 C 11,0 C 10,9 C 10,2 C 54 % 82 % 85 % 1022,5 hPa 0,0 l/m 10,6 km/h (2 Bft) W-NW 292 8,0 C 8,4 C 23,7 km/h (4 Bft)
18.09.2019 00:58 24,1 C 11,0 C 10,9 C 10,2 C 54 % 82 % 85 % 1022,5 hPa 0,0 l/m 10,6 km/h (2 Bft) SW 225 8,0 C 8,4 C 17,6 km/h (3 Bft)
18.09.2019 00:56 24,2 C 11,0 C 11,1 C 10,2 C 54 % 82 % 85 % 1022,5 hPa 0,0 l/m 10,8 km/h (2 Bft) NW 315 8,0 C 8,3 C 20,3 km/h (4 Bft)
18.09.2019 00:54 24,1 C 11,0 C 11,1 C 10,1 C 54 % 82 % 85 % 1022,5 hPa 0,0 l/m 11,4 km/h (2 Bft) W-NW 292 8,0 C 8,0 C 16,4 km/h (3 Bft)
18.09.2019 00:52 24,2 C 11,1 C 11,1 C 10,2 C 54 % 82 % 85 % 1022,5 hPa 0,0 l/m 12,6 km/h (3 Bft) N-NW 337 8,1 C 7,5 C 20,5 km/h (4 Bft)
18.09.2019 00:50 24,2 C 11,3 C 11,1 C 10,2 C 54 % 82 % 86 % 1022,5 hPa 0,0 l/m 13,4 km/h (3 Bft) N-NW 337 8,3 C 7,4 C 24,6 km/h (4 Bft)
18.09.2019 00:48 24,2 C 11,3 C 11,1 C 10,2 C 54 % 82 % 86 % 1022,5 hPa 0,0 l/m 13,2 km/h (3 Bft) W 270 8,3 C 7,5 C 22,9 km/h (4 Bft)
18.09.2019 00:46 24,2 C 11,3 C 11,2 C 10,2 C 54 % 82 % 86 % 1022,5 hPa 0,0 l/m 13,2 km/h (3 Bft) W-NW 292 8,3 C 7,5 C 21,5 km/h (4 Bft)
18.09.2019 00:44 24,2 C 11,1 C 11,1 C 10,3 C 54 % 82 % 86 % 1022,5 hPa 0,0 l/m 13,4 km/h (3 Bft) NW 315 8,1 C 7,1 C 21,2 km/h (4 Bft)
18.09.2019 00:42 24,2 C 11,1 C 10,9 C 10,2 C 54 % 82 % 86 % 1022,5 hPa 0,0 l/m 13,0 km/h (3 Bft) W-NW 292 8,1 C 7,3 C 25,1 km/h (4 Bft)
18.09.2019 00:40 24,2 C 11,1 C 11,1 C 10,2 C 54 % 82 % 86 % 1022,5 hPa 0,0 l/m 12,7 km/h (3 Bft) W 270 8,1 C 7,5 C 22,4 km/h (4 Bft)
18.09.2019 00:38 24,2 C 11,1 C 11,1 C 10,1 C 54 % 82 % 86 % 1022,5 hPa 0,0 l/m 12,7 km/h (3 Bft) W 270 8,1 C 7,5 C 22,2 km/h (4 Bft)
18.09.2019 00:36 24,2 C 11,1 C 10,9 C 10,1 C 54 % 82 % 86 % 1022,5 hPa 0,0 l/m 12,9 km/h (3 Bft) NW 315 8,1 C 7,4 C 23,4 km/h (4 Bft)
18.09.2019 00:34 24,2 C 11,1 C 11,1 C 10,1 C 54 % 82 % 86 % 1022,5 hPa 0,0 l/m 12,6 km/h (3 Bft) W-NW 292 8,1 C 7,5 C 17,9 km/h (3 Bft)
18.09.2019 00:32 24,2 C 11,3 C 11,1 C 10,1 C 54 % 82 % 86 % 1022,5 hPa 0,0 l/m 12,4 km/h (3 Bft) NW 315 8,3 C 7,8 C 23,4 km/h (4 Bft)
18.09.2019 00:30 24,3 C 11,1 C 11,1 C 10,0 C 54 % 81 % 86 % 1022,4 hPa 0,0 l/m 12,2 km/h (2 Bft) W 270 8,0 C 7,7 C 17,6 km/h (3 Bft)
18.09.2019 00:28 24,2 C 11,3 C 11,1 C 9,9 C 54 % 81 % 87 % 1022,4 hPa 0,0 l/m 12,7 km/h (3 Bft) W 270 8,2 C 7,7 C 13,5 km/h (3 Bft)
18.09.2019 00:26 24,3 C 11,3 C 11,1 C 9,7 C 54 % 81 % 87 % 1022,4 hPa 0,0 l/m 12,1 km/h (2 Bft) W-NW 292 8,2 C 8,0 C 22,2 km/h (4 Bft)
18.09.2019 00:24 24,3 C 11,3 C 11,2 C 9,6 C 54 % 81 % 87 % 1022,4 hPa 0,0 l/m 11,9 km/h (2 Bft) W 270 8,2 C 8,1 C 17,6 km/h (3 Bft)
18.09.2019 00:22 24,3 C 11,1 C 11,1 C 9,5 C 54 % 81 % 87 % 1022,4 hPa 0,0 l/m 11,9 km/h (2 Bft) W 270 8,0 C 7,8 C 30,4 km/h (5 Bft)
18.09.2019 00:20 24,3 C 11,1 C 11,1 C 9,2 C 54 % 81 % 87 % 1022,4 hPa 0,0 l/m 11,4 km/h (2 Bft) W 270 8,0 C 8,1 C 17,6 km/h (3 Bft)
18.09.2019 00:18 24,3 C 11,1 C 11,2 C 9,2 C 54 % 81 % 87 % 1022,4 hPa 0,0 l/m 10,9 km/h (2 Bft) W-NW 292 8,0 C 8,3 C 30,4 km/h (5 Bft)
18.09.2019 00:16 24,3 C 11,1 C 11,3 C 9,1 C 54 % 81 % 87 % 1022,4 hPa 0,0 l/m 10,0 km/h (2 Bft) W-NW 292 8,0 C 8,8 C 17,1 km/h (3 Bft)
18.09.2019 00:14 24,3 C 11,5 C 11,4 C 8,5 C 54 % 80 % 86 % 1022,4 hPa 0,0 l/m 6,9 km/h (2 Bft) W-NW 292 8,2 C 11,2 C 11,1 km/h (2 Bft)
18.09.2019 00:12 24,3 C 11,5 C 11,4 C 8,5 C 54 % 80 % 86 % 1022,4 hPa 0,0 l/m 6,9 km/h (2 Bft) W-NW 292 8,2 C 11,2 C 11,1 km/h (2 Bft)
18.09.2019 00:10 24,3 C 11,5 C 11,4 C 8,5 C 54 % 80 % 86 % 1022,1 hPa 0,0 l/m 6,9 km/h (2 Bft) W-NW 292 8,2 C 11,2 C 11,1 km/h (2 Bft)
18.09.2019 00:08 24,2 C 11,5 C 11,4 C 8,5 C 54 % 80 % 86 % 1022,1 hPa 0,0 l/m 6,9 km/h (2 Bft) W-NW 292 8,2 C 11,2 C 11,1 km/h (2 Bft)
18.09.2019 00:06 24,2 C 11,5 C 11,4 C 8,5 C 54 % 80 % 86 % 1022,1 hPa 0,0 l/m 6,9 km/h (2 Bft) W-NW 292 8,2 C 11,2 C 11,1 km/h (2 Bft)
18.09.2019 00:04 24,2 C 11,5 C 11,4 C 8,5 C 54 % 80 % 86 % 1022,1 hPa 0,0 l/m 6,9 km/h (2 Bft) W-NW 292 8,2 C 11,2 C 11,1 km/h (2 Bft)
18.09.2019 00:02 24,2 C 11,4 C 11,4 C 8,4 C 54 % 80 % 86 % 1022,1 hPa 0,0 l/m 7,1 km/h (2 Bft) N 360 8,1 C 10,9 C 5,8 km/h (2 Bft)
18.09.2019 00:00 24,2 C 11,3 C 11,2 C 8,4 C 54 % 80 % 86 % 1022,1 hPa 0,0 l/m 6,6 km/h (2 Bft) W 270 8,0 C 11,2 C 19,6 km/h (3 Bft)
_ Min-Zeit 07:16 07:30 06:50 07:26 17:30 17:22 17:00 00:00 - 02:52 - - 07:30 07:30 02:32
Minimum _ 23,1 C 3,9 C 4,2 C 0,7 C 39 % 49 % 48 % 1022,1 hPa - 0,0 km/h (0 Bft) - - 1,4 C 3,9 C 0,0 km/h (0 Bft)
_ Max-Zeit 12:26 16:20 12:46 15:48 00:00 02:10 08:14 12:12 00:00 13:26 - - 00:32 16:38 09:12
Maximum _ 24,9 C 15,4 C 28,7 C 16,0 C 54 % 84 % 92 % 1027,1 hPa 0,0 l/m 15,9 km/h
W-NW (3 Bft)
- - 8,3 C 15,4 C 33,6 km/h
S-SO (5 Bft)
Durchschnitt _ 23,9 C 10,8 C 14,2 C 9,1 C 49 % 68 % 73 % 1025,0 hPa #0,0 l/m 5,2 km/h (1 Bft) W - 4,7 C 10,1 C 9,5 km/h (2 Bft)